Time,TemperatureF,DewpointF,PressureIn,WindDirection,WindDirectionDegrees,WindSpeedMPH,WindSpeedGustMPH,Humidity,HourlyPrecipIn,Conditions,Clouds,dailyrainin,SoftwareType,DateUTC
2013-06-18 00:00:00,68.4,50.6,29.77,NW,320,0.0,0.0,53,0.00,,---,0.00,VWS V14.01,2013-06-18 04:00:00,
2013-06-18 00:01:00,68.4,50.6,29.77,NW,320,0.0,0.0,53,0.00,,---,0.00,VWS V14.01,2013-06-18 04:01:00,
2013-06-18 00:06:00,68.4,50.6,29.77,NW,320,0.0,0.0,53,0.00,,---,0.00,VWS V14.01,2013-06-18 04:06:00,
2013-06-18 00:11:00,68.4,51.1,29.77,NW,320,0.0,0.0,54,0.00,,---,0.00,VWS V14.01,2013-06-18 04:11:00,
2013-06-18 00:16:00,68.4,51.1,29.77,NW,320,0.0,0.0,54,0.00,,---,0.00,VWS V14.01,2013-06-18 04:16:00,
2013-06-18 00:21:00,68.2,50.4,29.77,NW,320,0.0,0.0,53,0.00,,---,0.00,VWS V14.01,2013-06-18 04:21:00,
2013-06-18 00:22:00,68.2,50.9,29.77,NW,320,0.0,0.0,54,0.00,,---,0.00,VWS V14.01,2013-06-18 04:22:00,
2013-06-18 00:26:00,68.4,51.1,29.77,NW,320,0.0,0.0,54,0.00,,---,0.00,VWS V14.01,2013-06-18 04:26:00,
2013-06-18 00:27:00,68.4,51.1,29.77,NW,320,0.0,0.0,54,0.00,,---,0.00,VWS V14.01,2013-06-18 04:27:00,
2013-06-18 00:31:00,68.4,51.1,29.77,NW,320,0.0,0.0,54,0.00,,---,0.00,VWS V14.01,2013-06-18 04:31:00,
2013-06-18 00:32:00,68.4,51.1,29.77,NW,320,0.0,0.0,54,0.00,,---,0.00,VWS V14.01,2013-06-18 04:32:00,
2013-06-18 00:36:00,68.4,51.1,29.77,NW,320,0.0,0.0,54,0.00,,---,0.00,VWS V14.01,2013-06-18 04:36:00,
2013-06-18 00:37:00,68.5,51.2,29.77,NW,320,0.0,0.0,54,0.00,,---,0.00,VWS V14.01,2013-06-18 04:37:00,
2013-06-18 00:41:00,68.4,51.1,29.77,NW,320,0.0,0.0,54,0.00,,---,0.00,VWS V14.01,2013-06-18 04:41:00,
2013-06-18 00:42:00,68.4,50.6,29.77,NW,320,0.0,0.0,53,0.00,,---,0.00,VWS V14.01,2013-06-18 04:42:00,
2013-06-18 00:46:00,68.4,51.1,29.77,NW,320,0.0,0.0,54,0.00,,---,0.00,VWS V14.01,2013-06-18 04:46:00,
2013-06-18 00:47:00,68.4,51.1,29.77,NW,320,0.0,0.0,54,0.00,,---,0.00,VWS V14.01,2013-06-18 04:47:00,
2013-06-18 00:51:00,68.4,52.1,29.77,NW,320,0.0,0.0,56,0.00,,---,0.00,VWS V14.01,2013-06-18 04:51:00,
2013-06-18 00:52:00,68.4,52.1,29.77,NW,320,0.0,0.0,56,0.00,,---,0.00,VWS V14.01,2013-06-18 04:52:00,
2013-06-18 00:56:00,68.5,52.7,29.77,NW,320,0.0,0.0,57,0.00,,---,0.00,VWS V14.01,2013-06-18 04:56:00,
2013-06-18 00:57:00,68.5,52.7,29.77,NW,320,0.0,0.0,57,0.00,,---,0.00,VWS V14.01,2013-06-18 04:57:00,
2013-06-18 00:58:00,68.5,52.7,29.77,NW,320,0.0,0.0,57,0.00,,---,0.00,VWS V14.01,2013-06-18 04:58:00,
2013-06-18 01:02:00,68.5,52.7,29.77,NW,320,0.0,0.0,57,0.00,,---,0.00,VWS V14.01,2013-06-18 05:02:00,
2013-06-18 01:03:00,68.5,52.7,29.77,NW,320,0.0,0.0,57,0.00,,---,0.00,VWS V14.01,2013-06-18 05:03:00,
2013-06-18 01:07:00,68.5,53.7,29.77,NW,320,0.0,0.0,59,0.00,,---,0.00,VWS V14.01,2013-06-18 05:07:00,
2013-06-18 01:08:00,68.5,53.7,29.77,NW,320,0.0,0.0,59,0.00,,---,0.00,VWS V14.01,2013-06-18 05:08:00,
2013-06-18 01:12:00,68.7,54.7,29.77,NW,320,0.0,0.0,61,0.00,,---,0.00,VWS V14.01,2013-06-18 05:12:00,
2013-06-18 01:13:00,68.7,55.2,29.77,NW,320,0.0,0.0,62,0.00,,---,0.00,VWS V14.01,2013-06-18 05:13:00,
2013-06-18 01:17:00,68.7,56.1,29.77,NW,320,0.0,0.0,64,0.00,,---,0.00,VWS V14.01,2013-06-18 05:17:00,
2013-06-18 01:18:00,68.7,56.1,29.77,NW,320,0.0,0.0,64,0.00,,---,0.00,VWS V14.01,2013-06-18 05:18:00,
2013-06-18 01:22:00,68.7,56.5,29.77,NW,320,0.0,0.0,65,0.00,,---,0.00,VWS V14.01,2013-06-18 05:22:00,
2013-06-18 01:23:00,68.7,56.5,29.77,NW,320,0.0,0.0,65,0.00,,---,0.00,VWS V14.01,2013-06-18 05:23:00,
2013-06-18 01:27:00,68.7,56.9,29.77,NW,320,0.0,0.0,66,0.00,,---,0.00,VWS V14.01,2013-06-18 05:27:00,
2013-06-18 01:28:00,68.7,56.9,29.77,NW,320,0.0,0.0,66,0.00,,---,0.00,VWS V14.01,2013-06-18 05:28:00,
2013-06-18 01:32:00,68.9,57.5,29.77,NW,320,0.0,0.0,67,0.00,,---,0.00,VWS V14.01,2013-06-18 05:32:00,
2013-06-18 01:33:00,68.9,57.5,29.77,NW,320,0.0,0.0,67,0.00,,---,0.00,VWS V14.01,2013-06-18 05:33:00,
2013-06-18 01:34:00,68.9,57.5,29.77,NW,320,0.0,0.0,67,0.00,,---,0.00,VWS V14.01,2013-06-18 05:34:00,
2013-06-18 01:37:00,68.9,57.9,29.77,NW,320,0.0,0.0,68,0.00,,---,0.00,VWS V14.01,2013-06-18 05:37:00,
2013-06-18 01:38:00,68.9,57.9,29.77,NW,320,0.0,0.0,68,0.00,,---,0.00,VWS V14.01,2013-06-18 05:38:00,
2013-06-18 01:39:00,68.9,57.9,29.77,NW,320,0.0,0.0,68,0.00,,---,0.00,VWS V14.01,2013-06-18 05:39:00,
2013-06-18 01:42:00,68.9,58.7,29.77,NW,320,0.0,0.0,70,0.00,,---,0.00,VWS V14.01,2013-06-18 05:42:00,
2013-06-18 01:43:00,68.9,59.1,29.77,NW,320,0.0,0.0,71,0.00,,---,0.00,VWS V14.01,2013-06-18 05:43:00,
2013-06-18 01:44:00,68.9,59.1,29.77,NW,320,0.0,0.0,71,0.00,,---,0.00,VWS V14.01,2013-06-18 05:44:00,
2013-06-18 01:47:00,68.9,59.5,29.77,NW,320,0.0,0.0,72,0.00,,---,0.00,VWS V14.01,2013-06-18 05:47:00,
2013-06-18 01:48:00,68.9,59.5,29.77,NW,320,0.0,0.0,72,0.00,,---,0.00,VWS V14.01,2013-06-18 05:48:00,
2013-06-18 01:49:00,68.9,59.9,29.77,NW,320,0.0,0.0,73,0.00,,---,0.00,VWS V14.01,2013-06-18 05:49:00,
2013-06-18 01:52:00,69.1,60.5,29.77,NW,320,0.0,0.0,74,0.00,,---,0.00,VWS V14.01,2013-06-18 05:52:00,
2013-06-18 01:53:00,69.1,60.8,29.77,NW,320,0.0,0.0,75,0.00,,---,0.00,VWS V14.01,2013-06-18 05:53:00,
2013-06-18 01:54:00,69.1,60.8,29.77,NW,320,0.0,0.0,75,0.00,,---,0.00,VWS V14.01,2013-06-18 05:54:00,
2013-06-18 01:57:00,69.1,60.8,29.77,NW,320,0.0,0.0,75,0.00,,---,0.00,VWS V14.01,2013-06-18 05:57:00,
2013-06-18 01:58:00,69.1,61.2,29.77,NW,320,0.0,0.0,76,0.00,,---,0.00,VWS V14.01,2013-06-18 05:58:00,
2013-06-18 01:59:00,69.1,61.2,29.77,NW,320,0.0,0.0,76,0.00,,---,0.00,VWS V14.01,2013-06-18 05:59:00,
2013-06-18 02:02:00,69.1,61.2,29.77,NW,320,0.0,0.0,76,0.00,,---,0.00,VWS V14.01,2013-06-18 06:02:00,
2013-06-18 02:03:00,69.1,61.2,29.77,NW,320,0.0,0.0,76,0.00,,---,0.00,VWS V14.01,2013-06-18 06:03:00,
2013-06-18 02:04:00,69.1,61.6,29.77,NW,320,0.0,0.0,77,0.00,,---,0.00,VWS V14.01,2013-06-18 06:04:00,
2013-06-18 02:08:00,69.3,61.8,29.77,NW,320,0.0,0.0,77,0.00,,---,0.00,VWS V14.01,2013-06-18 06:08:00,
2013-06-18 02:09:00,69.3,61.8,29.77,NW,320,0.0,0.0,77,0.00,,---,0.00,VWS V14.01,2013-06-18 06:09:00,
2013-06-18 02:13:00,69.3,61.8,29.77,NW,320,0.0,0.0,77,0.00,,---,0.00,VWS V14.01,2013-06-18 06:13:00,
2013-06-18 02:14:00,69.3,62.1,29.77,NW,320,0.0,0.0,78,0.00,,---,0.00,VWS V14.01,2013-06-18 06:14:00,
2013-06-18 02:18:00,69.4,62.3,29.77,NW,320,0.0,0.0,78,0.00,,---,0.00,VWS V14.01,2013-06-18 06:18:00,
2013-06-18 02:19:00,69.4,62.3,29.77,NW,320,0.0,0.0,78,0.00,,---,0.00,VWS V14.01,2013-06-18 06:19:00,
2013-06-18 02:20:00,69.4,62.3,29.77,NW,320,0.0,0.0,78,0.00,,---,0.00,VWS V14.01,2013-06-18 06:20:00,
2013-06-18 02:23:00,69.4,61.9,29.74,NW,320,0.0,0.0,77,0.00,,---,0.00,VWS V14.01,2013-06-18 06:23:00,
2013-06-18 02:24:00,69.4,61.9,29.74,NW,320,0.0,0.0,77,0.00,,---,0.00,VWS V14.01,2013-06-18 06:24:00,
2013-06-18 02:25:00,69.4,61.9,29.74,NW,320,0.0,0.0,77,0.00,,---,0.00,VWS V14.01,2013-06-18 06:25:00,
2013-06-18 02:29:00,69.6,62.1,29.74,NW,320,0.0,0.0,77,0.00,,---,0.00,VWS V14.01,2013-06-18 06:29:00,
2013-06-18 02:30:00,69.6,62.1,29.74,NW,320,0.0,0.0,77,0.00,,---,0.00,VWS V14.01,2013-06-18 06:30:00,
2013-06-18 02:34:00,69.6,62.1,29.74,NW,320,0.0,0.0,77,0.00,,---,0.00,VWS V14.01,2013-06-18 06:34:00,
2013-06-18 02:35:00,69.6,62.1,29.74,NW,320,0.0,0.0,77,0.00,,---,0.00,VWS V14.01,2013-06-18 06:35:00,
2013-06-18 02:39:00,69.6,62.1,29.74,NW,320,0.0,0.0,77,0.00,,---,0.00,VWS V14.01,2013-06-18 06:39:00,
2013-06-18 02:40:00,69.6,62.1,29.74,NW,320,0.0,0.0,77,0.00,,---,0.00,VWS V14.01,2013-06-18 06:40:00,
2013-06-18 02:44:00,69.6,61.7,29.74,NW,320,0.0,0.0,76,0.00,,---,0.00,VWS V14.01,2013-06-18 06:44:00,
2013-06-18 02:45:00,69.6,61.7,29.74,NW,320,0.0,0.0,76,0.00,,---,0.00,VWS V14.01,2013-06-18 06:45:00,
2013-06-18 02:49:00,69.6,61.7,29.74,NW,320,0.0,0.0,76,0.00,,---,0.00,VWS V14.01,2013-06-18 06:49:00,
2013-06-18 02:50:00,69.4,61.2,29.74,NW,320,0.0,0.0,75,0.00,,---,0.00,VWS V14.01,2013-06-18 06:50:00,
2013-06-18 02:51:00,69.4,61.2,29.74,NW,320,0.0,0.0,75,0.00,,---,0.00,VWS V14.01,2013-06-18 06:51:00,
2013-06-18 02:54:00,69.4,60.8,29.74,NW,320,0.0,0.0,74,0.00,,---,0.00,VWS V14.01,2013-06-18 06:54:00,
2013-06-18 02:55:00,69.4,60.8,29.74,NW,320,0.0,0.0,74,0.00,,---,0.00,VWS V14.01,2013-06-18 06:55:00,
2013-06-18 02:56:00,69.4,60.8,29.74,NW,320,0.0,0.0,74,0.00,,---,0.00,VWS V14.01,2013-06-18 06:56:00,
2013-06-18 02:59:00,69.3,60.2,29.74,NW,320,0.0,0.0,73,0.00,,---,0.00,VWS V14.01,2013-06-18 06:59:00,
2013-06-18 03:00:00,69.3,60.2,29.74,NW,320,0.0,0.0,73,0.00,,---,0.00,VWS V14.01,2013-06-18 07:00:00,
2013-06-18 03:01:00,69.3,60.2,29.74,NW,320,0.0,0.0,73,0.00,,---,0.00,VWS V14.01,2013-06-18 07:01:00,
2013-06-18 03:04:00,69.3,60.6,29.74,NW,320,0.0,0.0,74,0.00,,---,0.00,VWS V14.01,2013-06-18 07:04:00,
2013-06-18 03:05:00,69.3,60.6,29.74,NW,320,0.0,0.0,74,0.00,,---,0.00,VWS V14.01,2013-06-18 07:05:00,
2013-06-18 03:06:00,69.3,60.6,29.74,NW,320,0.0,0.0,74,0.00,,---,0.00,VWS V14.01,2013-06-18 07:06:00,
2013-06-18 03:09:00,69.3,61.0,29.74,NW,320,0.0,0.0,75,0.00,,---,0.00,VWS V14.01,2013-06-18 07:09:00,
2013-06-18 03:10:00,69.3,61.0,29.74,NW,320,0.0,0.0,75,0.00,,---,0.00,VWS V14.01,2013-06-18 07:10:00,
2013-06-18 03:11:00,69.3,60.6,29.74,NW,320,0.0,0.0,74,0.00,,---,0.00,VWS V14.01,2013-06-18 07:11:00,
2013-06-18 03:14:00,69.1,60.5,29.74,NW,320,0.0,0.0,74,0.00,,---,0.00,VWS V14.01,2013-06-18 07:14:00,
2013-06-18 03:15:00,69.1,60.5,29.74,NW,320,0.0,0.0,74,0.00,,---,0.00,VWS V14.01,2013-06-18 07:15:00,
2013-06-18 03:16:00,69.1,60.5,29.74,NW,320,0.0,0.0,74,0.00,,---,0.00,VWS V14.01,2013-06-18 07:16:00,
2013-06-18 03:20:00,69.1,60.5,29.74,NW,320,0.0,0.0,74,0.00,,---,0.00,VWS V14.01,2013-06-18 07:20:00,
2013-06-18 03:21:00,69.1,60.5,29.74,NW,320,0.0,0.0,74,0.00,,---,0.00,VWS V14.01,2013-06-18 07:21:00,
2013-06-18 03:25:00,69.1,60.5,29.74,NW,320,0.0,0.0,74,0.00,,---,0.00,VWS V14.01,2013-06-18 07:25:00,
2013-06-18 03:26:00,68.9,60.3,29.74,NW,320,0.0,0.0,74,0.00,,---,0.00,VWS V14.01,2013-06-18 07:26:00,
2013-06-18 03:30:00,68.9,60.3,29.74,NW,320,0.0,0.0,74,0.00,,---,0.00,VWS V14.01,2013-06-18 07:30:00,
2013-06-18 03:31:00,68.9,60.3,29.74,NW,320,0.0,0.0,74,0.00,,---,0.00,VWS V14.01,2013-06-18 07:31:00,
2013-06-18 03:35:00,68.9,60.7,29.74,NW,320,0.0,0.0,75,0.00,,---,0.00,VWS V14.01,2013-06-18 07:35:00,
2013-06-18 03:36:00,68.9,60.7,29.74,NW,320,0.0,0.0,75,0.00,,---,0.00,VWS V14.01,2013-06-18 07:36:00,
2013-06-18 03:37:00,68.9,60.7,29.74,NW,320,0.0,0.0,75,0.00,,---,0.00,VWS V14.01,2013-06-18 07:37:00,
2013-06-18 03:40:00,68.7,60.5,29.74,NW,320,0.0,0.0,75,0.00,,---,0.00,VWS V14.01,2013-06-18 07:40:00,
2013-06-18 03:41:00,68.7,60.5,29.74,NW,320,0.0,0.0,75,0.00,,---,0.00,VWS V14.01,2013-06-18 07:41:00,
2013-06-18 03:42:00,68.9,60.7,29.74,NW,320,0.0,0.0,75,0.00,,---,0.00,VWS V14.01,2013-06-18 07:42:00,
2013-06-18 03:45:00,68.9,60.7,29.74,NW,320,0.0,0.0,75,0.00,,---,0.00,VWS V14.01,2013-06-18 07:45:00,
2013-06-18 03:46:00,68.9,60.7,29.74,NW,320,0.0,0.0,75,0.00,,---,0.00,VWS V14.01,2013-06-18 07:46:00,
2013-06-18 03:48:00,68.9,60.3,29.74,NW,320,0.0,0.0,74,0.00,,---,0.00,VWS V14.01,2013-06-18 07:48:00,
2013-06-18 03:50:00,68.7,60.1,29.74,NW,320,0.0,0.0,74,0.00,,---,0.00,VWS V14.01,2013-06-18 07:50:00,
2013-06-18 03:51:00,68.7,60.1,29.74,NW,320,0.0,0.0,74,0.00,,---,0.00,VWS V14.01,2013-06-18 07:51:00,
2013-06-18 03:53:00,68.7,60.1,29.74,NW,320,0.0,0.0,74,0.00,,---,0.00,VWS V14.01,2013-06-18 07:53:00,
2013-06-18 03:55:00,68.7,60.1,29.74,NW,320,0.0,0.0,74,0.00,,---,0.00,VWS V14.01,2013-06-18 07:55:00,
2013-06-18 03:56:00,68.7,60.1,29.74,NW,320,0.0,0.0,74,0.00,,---,0.00,VWS V14.01,2013-06-18 07:56:00,
2013-06-18 03:58:00,68.7,60.1,29.74,NW,320,0.0,0.0,74,0.00,,---,0.00,VWS V14.01,2013-06-18 07:58:00,
2013-06-18 03:59:00,68.7,60.1,29.74,NW,320,0.0,0.0,74,0.00,,---,0.00,VWS V14.01,2013-06-18 07:59:00,
2013-06-18 04:00:00,68.7,60.5,29.74,NW,320,0.0,0.0,75,0.00,,---,0.00,VWS V14.01,2013-06-18 08:00:00,
2013-06-18 04:01:00,68.7,60.5,29.74,NW,320,0.0,0.0,75,0.00,,---,0.00,VWS V14.01,2013-06-18 08:01:00,
2013-06-18 04:02:00,68.7,60.5,29.74,NW,320,0.0,0.0,75,0.00,,---,0.00,VWS V14.01,2013-06-18 08:02:00,
2013-06-18 04:03:00,68.7,60.5,29.74,NW,320,0.0,0.0,75,0.00,,---,0.00,VWS V14.01,2013-06-18 08:03:00,
2013-06-18 04:04:00,68.7,60.5,29.74,NW,320,0.0,0.0,75,0.00,,---,0.00,VWS V14.01,2013-06-18 08:04:00,
2013-06-18 04:05:00,68.7,60.1,29.74,NW,320,0.0,0.0,74,0.00,,---,0.00,VWS V14.01,2013-06-18 08:05:00,
2013-06-18 04:06:00,68.7,60.1,29.74,NW,320,0.0,0.0,74,0.00,,---,0.00,VWS V14.01,2013-06-18 08:06:00,
2013-06-18 04:08:00,68.7,60.1,29.74,NW,320,0.0,0.0,74,0.00,,---,0.00,VWS V14.01,2013-06-18 08:08:00,
2013-06-18 04:09:00,68.7,60.1,29.74,NW,320,0.0,0.0,74,0.00,,---,0.00,VWS V14.01,2013-06-18 08:09:00,
2013-06-18 04:10:00,68.7,60.1,29.74,NW,320,0.0,0.0,74,0.00,,---,0.00,VWS V14.01,2013-06-18 08:10:00,
2013-06-18 04:11:00,68.7,60.1,29.74,NW,320,0.0,0.0,74,0.00,,---,0.00,VWS V14.01,2013-06-18 08:11:00,
2013-06-18 04:12:00,68.7,60.1,29.74,NW,320,0.0,0.0,74,0.00,,---,0.00,VWS V14.01,2013-06-18 08:12:00,
2013-06-18 04:13:00,68.7,60.1,29.74,NW,320,0.0,0.0,74,0.00,,---,0.00,VWS V14.01,2013-06-18 08:13:00,
2013-06-18 04:14:00,68.7,60.1,29.74,NW,320,0.0,0.0,74,0.00,,---,0.00,VWS V14.01,2013-06-18 08:14:00,
2013-06-18 04:15:00,68.7,60.1,29.74,NW,320,0.0,0.0,74,0.00,,---,0.00,VWS V14.01,2013-06-18 08:15:00,
2013-06-18 04:16:00,68.7,60.1,29.74,NW,320,0.0,0.0,74,0.00,,---,0.00,VWS V14.01,2013-06-18 08:16:00,
2013-06-18 04:17:00,68.5,59.9,29.74,NW,320,0.0,0.0,74,0.00,,---,0.00,VWS V14.01,2013-06-18 08:17:00,
2013-06-18 04:18:00,68.5,59.9,29.74,NW,320,0.0,0.0,74,0.00,,---,0.00,VWS V14.01,2013-06-18 08:18:00,
2013-06-18 04:19:00,68.5,59.9,29.74,NW,320,0.0,0.0,74,0.00,,---,0.00,VWS V14.01,2013-06-18 08:19:00,
2013-06-18 04:20:00,68.5,59.9,29.74,NW,320,0.0,0.0,74,0.00,,---,0.00,VWS V14.01,2013-06-18 08:20:00,
2013-06-18 04:21:00,68.5,59.9,29.74,NW,320,0.0,0.0,74,0.00,,---,0.00,VWS V14.01,2013-06-18 08:21:00,
2013-06-18 04:23:00,68.5,59.9,29.74,NW,320,0.0,0.0,74,0.00,,---,0.00,VWS V14.01,2013-06-18 08:23:00,
2013-06-18 04:24:00,68.5,59.9,29.74,NW,320,0.0,0.0,74,0.00,,---,0.00,VWS V14.01,2013-06-18 08:24:00,
2013-06-18 04:26:00,68.5,59.9,29.74,NW,320,0.0,0.0,74,0.00,,---,0.00,VWS V14.01,2013-06-18 08:26:00,
2013-06-18 04:28:00,68.4,59.4,29.74,NW,320,0.0,0.0,73,0.00,,---,0.00,VWS V14.01,2013-06-18 08:28:00,
2013-06-18 04:29:00,68.4,59.4,29.74,NW,320,0.0,0.0,73,0.00,,---,0.00,VWS V14.01,2013-06-18 08:29:00,
2013-06-18 04:31:00,68.4,59.4,29.74,NW,320,0.0,0.0,73,0.00,,---,0.00,VWS V14.01,2013-06-18 08:31:00,
2013-06-18 04:33:00,68.4,59.4,29.74,NW,320,0.0,0.0,73,0.00,,---,0.00,VWS V14.01,2013-06-18 08:33:00,
2013-06-18 04:34:00,68.4,59.4,29.74,NW,320,0.0,0.0,73,0.00,,---,0.00,VWS V14.01,2013-06-18 08:34:00,
2013-06-18 04:35:00,68.4,59.4,29.74,NW,320,0.0,0.0,73,0.00,,---,0.00,VWS V14.01,2013-06-18 08:35:00,
2013-06-18 04:36:00,68.4,59.4,29.74,NW,320,0.0,0.0,73,0.00,,---,0.00,VWS V14.01,2013-06-18 08:36:00,
2013-06-18 04:39:00,68.2,59.2,29.74,NW,320,0.0,0.0,73,0.00,,---,0.00,VWS V14.01,2013-06-18 08:39:00,
2013-06-18 04:40:00,68.2,59.2,29.74,NW,320,0.0,0.0,73,0.00,,---,0.00,VWS V14.01,2013-06-18 08:40:00,
2013-06-18 04:41:00,68.2,59.2,29.74,NW,320,0.0,0.0,73,0.00,,---,0.00,VWS V14.01,2013-06-18 08:41:00,
2013-06-18 04:44:00,68.2,59.2,29.74,NW,320,0.0,0.0,73,0.00,,---,0.00,VWS V14.01,2013-06-18 08:44:00,
2013-06-18 04:45:00,68.2,59.2,29.74,NW,320,0.0,0.0,73,0.00,,---,0.00,VWS V14.01,2013-06-18 08:45:00,
2013-06-18 04:46:00,68.2,59.6,29.74,NW,320,0.0,0.0,74,0.00,,---,0.00,VWS V14.01,2013-06-18 08:46:00,
2013-06-18 04:49:00,68.2,59.6,29.74,NW,320,0.0,0.0,74,0.00,,---,0.00,VWS V14.01,2013-06-18 08:49:00,
2013-06-18 04:50:00,68.2,59.6,29.74,NW,320,0.0,0.0,74,0.00,,---,0.00,VWS V14.01,2013-06-18 08:50:00,
2013-06-18 04:51:00,68.2,59.6,29.74,NW,320,0.0,0.0,74,0.00,,---,0.00,VWS V14.01,2013-06-18 08:51:00,
2013-06-18 04:54:00,68.2,59.2,29.74,NW,320,0.0,0.0,73,0.00,,---,0.00,VWS V14.01,2013-06-18 08:54:00,
2013-06-18 04:55:00,68.2,59.2,29.74,NW,320,0.0,0.0,73,0.00,,---,0.00,VWS V14.01,2013-06-18 08:55:00,
2013-06-18 04:56:00,68.2,59.2,29.74,NW,320,0.0,0.0,73,0.00,,---,0.00,VWS V14.01,2013-06-18 08:56:00,
2013-06-18 04:57:00,68.2,59.2,29.74,NW,320,0.0,0.0,73,0.00,,---,0.00,VWS V14.01,2013-06-18 08:57:00,
2013-06-18 04:59:00,68.2,58.8,29.74,NW,320,0.0,0.0,72,0.00,,---,0.00,VWS V14.01,2013-06-18 08:59:00,
2013-06-18 05:00:00,68.2,58.8,29.74,NW,320,0.0,0.0,72,0.00,,---,0.00,VWS V14.01,2013-06-18 09:00:00,
2013-06-18 05:01:00,68.0,58.7,29.74,NW,320,0.0,0.0,72,0.00,,---,0.00,VWS V14.01,2013-06-18 09:01:00,
2013-06-18 05:02:00,68.0,58.7,29.74,NW,320,0.0,0.0,72,0.00,,---,0.00,VWS V14.01,2013-06-18 09:02:00,
2013-06-18 05:05:00,68.0,58.7,29.74,NW,320,0.0,0.0,72,0.00,,---,0.00,VWS V14.01,2013-06-18 09:05:00,
2013-06-18 05:06:00,68.0,58.7,29.74,NW,320,0.0,0.0,72,0.00,,---,0.00,VWS V14.01,2013-06-18 09:06:00,
2013-06-18 05:07:00,68.0,58.7,29.74,NW,320,0.0,0.0,72,0.00,,---,0.00,VWS V14.01,2013-06-18 09:07:00,
2013-06-18 05:10:00,68.0,58.7,29.74,NW,320,0.0,0.0,72,0.00,,---,0.00,VWS V14.01,2013-06-18 09:10:00,
2013-06-18 05:11:00,67.8,58.5,29.74,NW,320,0.0,0.0,72,0.00,,---,0.00,VWS V14.01,2013-06-18 09:11:00,
2013-06-18 05:12:00,67.8,58.5,29.74,NW,320,0.0,0.0,72,0.00,,---,0.00,VWS V14.01,2013-06-18 09:12:00,
2013-06-18 05:15:00,67.8,58.5,29.74,NW,320,0.0,0.0,72,0.00,,---,0.00,VWS V14.01,2013-06-18 09:15:00,
2013-06-18 05:16:00,67.8,58.5,29.74,NW,320,0.0,0.0,72,0.00,,---,0.00,VWS V14.01,2013-06-18 09:16:00,
2013-06-18 05:17:00,67.8,58.5,29.74,NW,320,0.0,0.0,72,0.00,,---,0.00,VWS V14.01,2013-06-18 09:17:00,
2013-06-18 05:20:00,67.6,58.3,29.74,NW,320,0.0,0.0,72,0.00,,---,0.00,VWS V14.01,2013-06-18 09:20:00,
2013-06-18 05:21:00,67.6,58.3,29.74,NW,320,0.0,0.0,72,0.00,,---,0.00,VWS V14.01,2013-06-18 09:21:00,
2013-06-18 05:22:00,67.6,57.9,29.74,NW,320,0.0,0.0,71,0.00,,---,0.00,VWS V14.01,2013-06-18 09:22:00,
2013-06-18 05:23:00,67.6,57.9,29.74,NW,320,0.0,0.0,71,0.00,,---,0.00,VWS V14.01,2013-06-18 09:23:00,
2013-06-18 05:26:00,67.6,58.3,29.74,NW,320,0.0,0.0,72,0.00,,---,0.00,VWS V14.01,2013-06-18 09:26:00,
2013-06-18 05:27:00,67.6,58.3,29.74,NW,320,0.0,0.0,72,0.00,,---,0.00,VWS V14.01,2013-06-18 09:27:00,
2013-06-18 05:28:00,67.6,58.3,29.74,NW,320,0.0,0.0,72,0.00,,---,0.00,VWS V14.01,2013-06-18 09:28:00,
2013-06-18 05:31:00,67.6,58.3,29.74,NW,320,0.0,0.0,72,0.00,,---,0.00,VWS V14.01,2013-06-18 09:31:00,
2013-06-18 05:32:00,67.6,58.3,29.74,NW,320,0.0,0.0,72,0.00,,---,0.00,VWS V14.01,2013-06-18 09:32:00,
2013-06-18 05:33:00,67.6,58.3,29.74,NW,320,0.0,0.0,72,0.00,,---,0.00,VWS V14.01,2013-06-18 09:33:00,
2013-06-18 05:36:00,67.6,58.3,29.74,NW,320,0.0,0.0,72,0.00,,---,0.00,VWS V14.01,2013-06-18 09:36:00,
2013-06-18 05:37:00,67.6,58.3,29.74,NW,320,0.0,0.0,72,0.00,,---,0.00,VWS V14.01,2013-06-18 09:37:00,
2013-06-18 05:38:00,67.6,58.3,29.74,NW,320,0.0,0.0,72,0.00,,---,0.00,VWS V14.01,2013-06-18 09:38:00,
2013-06-18 05:41:00,67.6,58.3,29.74,NW,320,0.0,0.0,72,0.00,,---,0.00,VWS V14.01,2013-06-18 09:41:00,
2013-06-18 05:42:00,67.6,58.3,29.74,NW,320,0.0,0.0,72,0.00,,---,0.00,VWS V14.01,2013-06-18 09:42:00,
2013-06-18 05:43:00,67.8,58.5,29.74,NW,320,0.0,0.0,72,0.00,,---,0.00,VWS V14.01,2013-06-18 09:43:00,
2013-06-18 05:46:00,67.8,58.5,29.74,NW,320,0.0,0.0,72,0.00,,---,0.00,VWS V14.01,2013-06-18 09:46:00,
2013-06-18 05:47:00,67.8,58.5,29.74,NW,320,0.0,0.0,72,0.00,,---,0.00,VWS V14.01,2013-06-18 09:47:00,
2013-06-18 05:48:00,67.8,58.5,29.74,NW,320,0.0,0.0,72,0.00,,---,0.00,VWS V14.01,2013-06-18 09:48:00,
2013-06-18 05:51:00,67.8,58.5,29.74,NW,320,0.0,0.0,72,0.00,,---,0.00,VWS V14.01,2013-06-18 09:51:00,
2013-06-18 05:52:00,67.8,58.5,29.74,NW,320,0.0,0.0,72,0.00,,---,0.00,VWS V14.01,2013-06-18 09:52:00,
2013-06-18 05:53:00,67.8,58.5,29.74,NW,320,0.0,0.0,72,0.00,,---,0.00,VWS V14.01,2013-06-18 09:53:00,
2013-06-18 05:56:00,67.8,58.5,29.74,NW,320,0.0,0.0,72,0.00,,---,0.00,VWS V14.01,2013-06-18 09:56:00,
2013-06-18 05:57:00,67.8,58.5,29.74,NW,320,0.0,0.0,72,0.00,,---,0.00,VWS V14.01,2013-06-18 09:57:00,
2013-06-18 05:58:00,67.8,58.5,29.74,NW,320,0.0,0.0,72,0.00,,---,0.00,VWS V14.01,2013-06-18 09:58:00,
2013-06-18 06:01:00,68.0,58.7,29.74,NW,320,0.0,0.0,72,0.00,,---,0.00,VWS V14.01,2013-06-18 10:01:00,
2013-06-18 06:02:00,68.0,58.7,29.74,NW,320,0.0,0.0,72,0.00,,---,0.00,VWS V14.01,2013-06-18 10:02:00,
2013-06-18 06:04:00,68.0,58.7,29.74,NW,320,0.0,0.0,72,0.00,,---,0.00,VWS V14.01,2013-06-18 10:04:00,
2013-06-18 06:06:00,68.0,58.7,29.74,NW,320,0.0,0.0,72,0.00,,---,0.00,VWS V14.01,2013-06-18 10:06:00,
2013-06-18 06:07:00,68.0,58.7,29.74,NW,320,0.0,0.0,72,0.00,,---,0.00,VWS V14.01,2013-06-18 10:07:00,
2013-06-18 06:08:00,68.0,58.7,29.74,NW,320,0.0,0.0,72,0.00,,---,0.00,VWS V14.01,2013-06-18 10:08:00,
2013-06-18 06:09:00,68.0,58.7,29.74,NW,320,0.0,0.0,72,0.00,,---,0.00,VWS V14.01,2013-06-18 10:09:00,
2013-06-18 06:11:00,68.0,58.7,29.74,NW,320,0.0,0.0,72,0.00,,---,0.00,VWS V14.01,2013-06-18 10:11:00,
2013-06-18 06:13:00,68.2,58.8,29.74,NW,320,0.0,0.0,72,0.00,,---,0.00,VWS V14.01,2013-06-18 10:13:00,
2013-06-18 06:14:00,68.2,58.8,29.74,NW,320,0.0,0.0,72,0.00,,---,0.00,VWS V14.01,2013-06-18 10:14:00,
2013-06-18 06:16:00,68.2,58.8,29.74,NW,320,0.0,0.0,72,0.00,,---,0.00,VWS V14.01,2013-06-18 10:16:00,
2013-06-18 06:18:00,68.2,58.8,29.74,NW,320,0.0,0.0,72,0.00,,---,0.00,VWS V14.01,2013-06-18 10:18:00,
2013-06-18 06:19:00,68.2,58.8,29.74,NW,320,0.0,0.0,72,0.00,,---,0.00,VWS V14.01,2013-06-18 10:19:00,
2013-06-18 06:21:00,68.4,59.0,29.74,NW,320,0.0,0.0,72,0.00,,---,0.00,VWS V14.01,2013-06-18 10:21:00,
2013-06-18 06:23:00,68.4,59.0,29.74,NW,320,0.0,0.0,72,0.00,,---,0.00,VWS V14.01,2013-06-18 10:23:00,
2013-06-18 06:24:00,68.4,59.0,29.74,NW,320,0.0,0.0,72,0.00,,---,0.00,VWS V14.01,2013-06-18 10:24:00,
2013-06-18 06:27:00,68.4,59.0,29.74,NW,320,0.0,0.0,72,0.00,,---,0.00,VWS V14.01,2013-06-18 10:27:00,
2013-06-18 06:28:00,68.4,59.0,29.74,NW,320,0.0,0.0,72,0.00,,---,0.00,VWS V14.01,2013-06-18 10:28:00,
2013-06-18 06:29:00,68.5,59.2,29.74,NW,320,0.0,0.0,72,0.00,,---,0.00,VWS V14.01,2013-06-18 10:29:00,
2013-06-18 06:32:00,68.5,59.2,29.74,NW,320,0.0,0.0,72,0.00,,---,0.00,VWS V14.01,2013-06-18 10:32:00,
2013-06-18 06:33:00,68.5,59.2,29.74,NW,320,0.0,0.0,72,0.00,,---,0.00,VWS V14.01,2013-06-18 10:33:00,
2013-06-18 06:34:00,68.5,59.2,29.74,NW,320,0.0,0.0,72,0.00,,---,0.00,VWS V14.01,2013-06-18 10:34:00,
2013-06-18 06:37:00,68.5,59.2,29.74,NW,320,0.0,0.0,72,0.00,,---,0.00,VWS V14.01,2013-06-18 10:37:00,
2013-06-18 06:38:00,68.5,59.2,29.74,NW,320,0.0,0.0,72,0.00,,---,0.00,VWS V14.01,2013-06-18 10:38:00,
2013-06-18 06:39:00,68.5,59.2,29.74,NW,320,0.0,0.0,72,0.00,,---,0.00,VWS V14.01,2013-06-18 10:39:00,
2013-06-18 06:42:00,68.7,59.3,29.74,NW,320,0.0,0.0,72,0.00,,---,0.00,VWS V14.01,2013-06-18 10:42:00,
2013-06-18 06:43:00,68.7,59.3,29.74,NW,320,0.0,0.0,72,0.00,,---,0.00,VWS V14.01,2013-06-18 10:43:00,
2013-06-18 06:44:00,68.7,59.3,29.74,NW,320,0.0,0.0,72,0.00,,---,0.00,VWS V14.01,2013-06-18 10:44:00,
2013-06-18 06:47:00,68.9,59.5,29.74,NW,320,0.0,0.0,72,0.00,,---,0.00,VWS V14.01,2013-06-18 10:47:00,
2013-06-18 06:48:00,68.9,59.5,29.74,NW,320,0.0,0.0,72,0.00,,---,0.00,VWS V14.01,2013-06-18 10:48:00,
2013-06-18 06:49:00,68.9,59.5,29.74,NW,320,0.0,0.0,72,0.00,,---,0.00,VWS V14.01,2013-06-18 10:49:00,
2013-06-18 06:50:00,68.9,59.5,29.74,NW,320,0.0,0.0,72,0.00,,---,0.00,VWS V14.01,2013-06-18 10:50:00,
2013-06-18 06:52:00,68.9,59.5,29.74,NW,320,0.0,0.0,72,0.00,,---,0.00,VWS V14.01,2013-06-18 10:52:00,
2013-06-18 06:53:00,68.9,59.5,29.74,NW,320,0.0,0.0,72,0.00,,---,0.00,VWS V14.01,2013-06-18 10:53:00,
2013-06-18 06:54:00,68.9,59.5,29.74,NW,320,0.0,0.0,72,0.00,,---,0.00,VWS V14.01,2013-06-18 10:54:00,
2013-06-18 06:55:00,69.1,59.7,29.74,NW,320,0.0,0.0,72,0.00,,---,0.00,VWS V14.01,2013-06-18 10:55:00,
2013-06-18 06:57:00,69.1,59.7,29.74,NW,320,0.0,0.0,72,0.00,,---,0.00,VWS V14.01,2013-06-18 10:57:00,
2013-06-18 06:58:00,69.1,59.7,29.74,NW,320,0.0,0.0,72,0.00,,---,0.00,VWS V14.01,2013-06-18 10:58:00,
2013-06-18 06:59:00,69.1,59.7,29.74,NW,320,0.0,0.0,72,0.00,,---,0.00,VWS V14.01,2013-06-18 10:59:00,
2013-06-18 07:00:00,69.1,59.7,29.74,NW,320,0.0,0.0,72,0.00,,---,0.00,VWS V14.01,2013-06-18 11:00:00,
2013-06-18 07:02:00,69.1,60.1,29.74,NW,320,0.0,0.0,73,0.00,,---,0.00,VWS V14.01,2013-06-18 11:02:00,
2013-06-18 07:04:00,69.1,60.1,29.74,NW,320,0.0,0.0,73,0.00,,---,0.00,VWS V14.01,2013-06-18 11:04:00,
2013-06-18 07:05:00,69.3,60.2,29.74,NW,320,0.0,0.0,73,0.00,,---,0.00,VWS V14.01,2013-06-18 11:05:00,
2013-06-18 07:07:00,69.3,60.2,29.74,NW,320,0.0,0.0,73,0.00,,---,0.00,VWS V14.01,2013-06-18 11:07:00,
2013-06-18 07:09:00,69.3,60.2,29.74,NW,320,0.0,0.0,73,0.00,,---,0.00,VWS V14.01,2013-06-18 11:09:00,
2013-06-18 07:10:00,69.3,60.2,29.74,NW,320,0.0,0.0,73,0.00,,---,0.00,VWS V14.01,2013-06-18 11:10:00,
2013-06-18 07:12:00,69.4,60.8,29.74,NW,320,0.0,0.0,74,0.00,,---,0.00,VWS V14.01,2013-06-18 11:12:00,
2013-06-18 07:14:00,69.4,60.8,29.74,NW,320,0.0,0.0,74,0.00,,---,0.00,VWS V14.01,2013-06-18 11:14:00,
2013-06-18 07:15:00,69.4,60.8,29.74,NW,320,0.0,0.0,74,0.00,,---,0.00,VWS V14.01,2013-06-18 11:15:00,
2013-06-18 07:18:00,69.6,61.0,29.74,NW,320,0.0,0.0,74,0.00,,---,0.00,VWS V14.01,2013-06-18 11:18:00,
2013-06-18 07:19:00,69.6,61.0,29.74,NW,320,0.0,0.0,74,0.00,,---,0.00,VWS V14.01,2013-06-18 11:19:00,
2013-06-18 07:20:00,69.6,61.0,29.74,NW,320,0.0,0.0,74,0.00,,---,0.00,VWS V14.01,2013-06-18 11:20:00,
2013-06-18 07:23:00,69.6,61.0,29.74,NW,320,0.0,0.0,74,0.00,,---,0.00,VWS V14.01,2013-06-18 11:23:00,
2013-06-18 07:24:00,69.8,61.2,29.74,NW,320,0.0,0.0,74,0.00,,---,0.00,VWS V14.01,2013-06-18 11:24:00,
2013-06-18 07:25:00,69.8,61.2,29.74,NW,320,0.0,0.0,74,0.00,,---,0.00,VWS V14.01,2013-06-18 11:25:00,
2013-06-18 07:28:00,69.8,61.2,29.74,NW,320,0.0,0.0,74,0.00,,---,0.00,VWS V14.01,2013-06-18 11:28:00,
2013-06-18 07:29:00,70.0,61.3,29.74,NW,320,0.0,0.0,74,0.00,,---,0.00,VWS V14.01,2013-06-18 11:29:00,
2013-06-18 07:30:00,70.0,61.3,29.74,NW,320,0.0,0.0,74,0.00,,---,0.00,VWS V14.01,2013-06-18 11:30:00,
2013-06-18 07:33:00,70.0,61.3,29.74,NW,320,0.0,0.0,74,0.00,,---,0.00,VWS V14.01,2013-06-18 11:33:00,
2013-06-18 07:34:00,70.2,61.5,29.74,NW,320,0.0,0.0,74,0.00,,---,0.00,VWS V14.01,2013-06-18 11:34:00,
2013-06-18 07:35:00,70.2,61.5,29.74,NW,320,0.0,0.0,74,0.00,,---,0.00,VWS V14.01,2013-06-18 11:35:00,
2013-06-18 07:39:00,70.3,62.0,29.74,NW,320,0.0,0.0,75,0.00,,---,0.00,VWS V14.01,2013-06-18 11:39:00,
2013-06-18 07:40:00,70.3,62.0,29.74,NW,320,0.0,0.0,75,0.00,,---,0.00,VWS V14.01,2013-06-18 11:40:00,
2013-06-18 07:41:00,70.3,62.0,29.74,NW,320,0.0,0.0,75,0.00,,---,0.00,VWS V14.01,2013-06-18 11:41:00,
2013-06-18 07:44:00,70.5,62.2,29.74,NW,320,0.0,0.0,75,0.00,,---,0.00,VWS V14.01,2013-06-18 11:44:00,
2013-06-18 07:45:00,70.5,62.2,29.74,NW,320,0.0,0.0,75,0.00,,---,0.00,VWS V14.01,2013-06-18 11:45:00,
2013-06-18 07:46:00,70.5,62.2,29.74,NW,320,0.0,0.0,75,0.00,,---,0.00,VWS V14.01,2013-06-18 11:46:00,
2013-06-18 07:49:00,70.7,62.4,29.74,NW,320,0.0,0.0,75,0.00,,---,0.00,VWS V14.01,2013-06-18 11:49:00,
2013-06-18 07:50:00,70.7,62.4,29.74,NW,320,0.0,0.0,75,0.00,,---,0.00,VWS V14.01,2013-06-18 11:50:00,
2013-06-18 07:51:00,70.7,62.4,29.74,NW,320,0.0,0.0,75,0.00,,---,0.00,VWS V14.01,2013-06-18 11:51:00,
2013-06-18 07:54:00,70.9,63.0,29.74,NW,320,0.0,0.0,76,0.00,,---,0.00,VWS V14.01,2013-06-18 11:54:00,
2013-06-18 07:55:00,71.1,63.1,29.74,NW,320,0.0,0.0,76,0.00,,---,0.00,VWS V14.01,2013-06-18 11:55:00,
2013-06-18 07:56:00,71.1,63.1,29.74,NW,320,0.0,0.0,76,0.00,,---,0.00,VWS V14.01,2013-06-18 11:56:00,
2013-06-18 07:59:00,71.2,63.3,29.74,NW,320,0.0,0.0,76,0.00,,---,0.00,VWS V14.01,2013-06-18 11:59:00,
2013-06-18 08:00:00,71.2,63.3,29.74,NW,320,0.0,0.0,76,0.04,,---,0.04,VWS V14.01,2013-06-18 12:00:00,
2013-06-18 08:01:00,71.2,63.3,29.74,NW,320,0.0,0.0,76,0.04,,---,0.04,VWS V14.01,2013-06-18 12:01:00,
2013-06-18 08:02:00,71.2,63.3,29.74,NW,320,0.0,0.0,76,0.04,,---,0.04,VWS V14.01,2013-06-18 12:02:00,
2013-06-18 08:04:00,71.6,63.6,29.74,NW,320,0.0,0.0,76,0.04,,---,0.04,VWS V14.01,2013-06-18 12:04:00,
2013-06-18 08:05:00,71.6,63.6,29.74,NW,320,0.0,0.0,76,0.04,,---,0.04,VWS V14.01,2013-06-18 12:05:00,
2013-06-18 08:06:00,71.6,63.6,29.74,NW,320,0.0,0.0,76,0.04,,---,0.04,VWS V14.01,2013-06-18 12:06:00,
2013-06-18 08:07:00,71.8,63.8,29.74,NW,320,0.0,0.0,76,0.04,,---,0.04,VWS V14.01,2013-06-18 12:07:00,
2013-06-18 08:09:00,71.8,63.8,29.74,NW,320,0.0,0.0,76,0.04,,---,0.04,VWS V14.01,2013-06-18 12:09:00,
2013-06-18 08:10:00,71.8,63.8,29.74,NW,320,0.0,0.0,76,0.04,,---,0.04,VWS V14.01,2013-06-18 12:10:00,
2013-06-18 08:12:00,72.0,64.0,29.74,NW,320,0.0,0.0,76,0.04,,---,0.04,VWS V14.01,2013-06-18 12:12:00,
2013-06-18 08:14:00,72.0,64.4,29.74,NW,320,0.0,0.0,77,0.04,,---,0.04,VWS V14.01,2013-06-18 12:14:00,
2013-06-18 08:15:00,72.1,64.5,29.74,NW,320,0.0,0.0,77,0.04,,---,0.04,VWS V14.01,2013-06-18 12:15:00,
2013-06-18 08:16:00,72.1,64.5,29.74,NW,320,0.0,0.0,77,0.04,,---,0.04,VWS V14.01,2013-06-18 12:16:00,
2013-06-18 08:17:00,72.1,64.5,29.74,NW,320,0.0,0.0,77,0.04,,---,0.04,VWS V14.01,2013-06-18 12:17:00,
2013-06-18 08:19:00,72.3,65.1,29.74,NW,320,0.0,0.0,78,0.04,,---,0.04,VWS V14.01,2013-06-18 12:19:00,
2013-06-18 08:21:00,72.5,65.3,29.77,NW,320,0.0,0.0,78,0.04,,---,0.04,VWS V14.01,2013-06-18 12:21:00,
2013-06-18 08:22:00,72.5,65.3,29.77,NW,320,0.0,0.0,78,0.04,,---,0.04,VWS V14.01,2013-06-18 12:22:00,
2013-06-18 08:23:00,72.5,65.3,29.77,NW,320,0.0,0.0,78,0.04,,---,0.04,VWS V14.01,2013-06-18 12:23:00,
2013-06-18 08:24:00,72.7,65.4,29.77,NW,320,0.0,0.0,78,0.04,,---,0.04,VWS V14.01,2013-06-18 12:24:00,
2013-06-18 08:26:00,72.7,65.4,29.77,NW,320,0.0,0.0,78,0.04,,---,0.04,VWS V14.01,2013-06-18 12:26:00,
2013-06-18 08:27:00,72.7,65.4,29.77,NW,320,0.0,0.0,78,0.04,,---,0.04,VWS V14.01,2013-06-18 12:27:00,
2013-06-18 08:28:00,72.7,65.4,29.77,NW,320,0.0,0.0,78,0.04,,---,0.04,VWS V14.01,2013-06-18 12:28:00,
2013-06-18 08:29:00,72.7,65.4,29.77,NW,320,0.0,0.0,78,0.04,,---,0.04,VWS V14.01,2013-06-18 12:29:00,
2013-06-18 08:31:00,72.9,65.6,29.77,NW,320,0.0,0.0,78,0.04,,---,0.04,VWS V14.01,2013-06-18 12:31:00,
2013-06-18 08:33:00,72.9,66.0,29.77,NW,320,0.0,0.0,79,0.04,,---,0.04,VWS V14.01,2013-06-18 12:33:00,
2013-06-18 08:34:00,73.0,66.2,29.77,NW,320,0.0,0.0,79,0.04,,---,0.04,VWS V14.01,2013-06-18 12:34:00,
2013-06-18 08:36:00,73.0,66.2,29.77,NW,320,0.0,0.0,79,0.04,,---,0.04,VWS V14.01,2013-06-18 12:36:00,
2013-06-18 08:38:00,73.2,66.3,29.77,NW,320,0.0,0.0,79,0.04,,---,0.04,VWS V14.01,2013-06-18 12:38:00,
2013-06-18 08:40:00,73.2,66.3,29.77,NW,320,0.0,0.0,79,0.04,,---,0.04,VWS V14.01,2013-06-18 12:40:00,
2013-06-18 08:41:00,73.2,66.3,29.77,NW,320,0.0,0.0,79,0.04,,---,0.04,VWS V14.01,2013-06-18 12:41:00,
2013-06-18 08:43:00,73.4,66.5,29.77,NW,320,0.0,0.0,79,0.04,,---,0.04,VWS V14.01,2013-06-18 12:43:00,
2013-06-18 08:45:00,73.4,66.5,29.77,NW,320,0.0,0.0,79,0.04,,---,0.04,VWS V14.01,2013-06-18 12:45:00,
2013-06-18 08:46:00,73.6,66.7,29.77,NW,320,0.0,0.0,79,0.04,,---,0.04,VWS V14.01,2013-06-18 12:46:00,
2013-06-18 08:48:00,73.8,66.8,29.77,NW,320,0.0,0.0,79,0.04,,---,0.04,VWS V14.01,2013-06-18 12:48:00,
2013-06-18 08:50:00,73.8,66.8,29.77,NW,320,0.0,0.0,79,0.04,,---,0.04,VWS V14.01,2013-06-18 12:50:00,
2013-06-18 08:51:00,73.8,66.8,29.77,NW,320,0.0,0.0,79,0.04,,---,0.04,VWS V14.01,2013-06-18 12:51:00,
2013-06-18 08:53:00,73.8,66.8,29.77,NW,320,0.0,0.0,79,0.04,,---,0.04,VWS V14.01,2013-06-18 12:53:00,
2013-06-18 08:55:00,73.9,67.4,29.77,NW,320,0.0,0.0,80,0.04,,---,0.04,VWS V14.01,2013-06-18 12:55:00,
2013-06-18 08:56:00,73.9,67.4,29.77,NW,320,0.0,0.0,80,0.04,,---,0.04,VWS V14.01,2013-06-18 12:56:00,
2013-06-18 08:57:00,73.9,67.4,29.77,NW,320,0.0,0.0,80,0.04,,---,0.04,VWS V14.01,2013-06-18 12:57:00,
2013-06-18 08:58:00,73.9,67.0,29.77,NW,320,0.0,0.0,79,0.04,,---,0.04,VWS V14.01,2013-06-18 12:58:00,
2013-06-18 08:59:00,73.9,67.0,29.77,NW,320,0.0,0.0,79,0.04,,---,0.04,VWS V14.01,2013-06-18 12:59:00,
2013-06-18 09:00:00,74.1,67.6,29.77,NW,320,0.0,0.0,80,0.00,,---,0.04,VWS V14.01,2013-06-18 13:00:00,
2013-06-18 09:01:00,74.1,67.6,29.77,NW,320,0.0,0.0,80,0.00,,---,0.04,VWS V14.01,2013-06-18 13:01:00,
2013-06-18 09:02:00,74.1,67.6,29.77,NW,320,0.0,0.0,80,0.00,,---,0.04,VWS V14.01,2013-06-18 13:02:00,
2013-06-18 09:03:00,74.1,67.6,29.77,NW,320,0.0,0.0,80,0.00,,---,0.04,VWS V14.01,2013-06-18 13:03:00,
2013-06-18 09:04:00,74.1,67.6,29.77,NW,320,0.0,0.0,80,0.00,,---,0.04,VWS V14.01,2013-06-18 13:04:00,
2013-06-18 09:05:00,74.3,67.7,29.77,NW,320,0.0,0.0,80,0.00,,---,0.04,VWS V14.01,2013-06-18 13:05:00,
2013-06-18 09:06:00,74.3,67.7,29.77,NW,320,0.0,0.0,80,0.00,,---,0.04,VWS V14.01,2013-06-18 13:06:00,
2013-06-18 09:07:00,74.3,67.7,29.77,NW,320,0.0,0.0,80,0.00,,---,0.04,VWS V14.01,2013-06-18 13:07:00,
2013-06-18 09:09:00,74.5,67.9,29.77,NW,320,0.0,0.0,80,0.00,,---,0.04,VWS V14.01,2013-06-18 13:09:00,
2013-06-18 09:10:00,74.5,67.9,29.77,NW,320,0.0,0.0,80,0.00,,---,0.04,VWS V14.01,2013-06-18 13:10:00,
2013-06-18 09:12:00,74.7,68.1,29.77,NW,320,0.0,0.0,80,0.00,,---,0.04,VWS V14.01,2013-06-18 13:12:00,
2013-06-18 09:14:00,74.7,68.1,29.77,NW,320,0.0,0.0,80,0.00,,---,0.04,VWS V14.01,2013-06-18 13:14:00,
2013-06-18 09:15:00,74.7,68.1,29.77,NW,320,0.0,0.0,80,0.00,,---,0.04,VWS V14.01,2013-06-18 13:15:00,
2013-06-18 09:17:00,74.7,68.1,29.77,NW,320,0.0,0.0,80,0.00,,---,0.04,VWS V14.01,2013-06-18 13:17:00,
2013-06-18 09:19:00,74.8,68.3,29.77,NW,320,0.0,0.0,80,0.00,,---,0.04,VWS V14.01,2013-06-18 13:19:00,
2013-06-18 09:20:00,75.0,68.4,29.77,NW,320,0.0,0.0,80,0.00,,---,0.04,VWS V14.01,2013-06-18 13:20:00,
2013-06-18 09:22:00,75.0,68.4,29.77,NW,320,0.0,0.0,80,0.00,,---,0.04,VWS V14.01,2013-06-18 13:22:00,
2013-06-18 09:24:00,75.2,68.6,29.77,NW,320,0.0,0.0,80,0.00,,---,0.04,VWS V14.01,2013-06-18 13:24:00,
2013-06-18 09:26:00,75.2,68.6,29.77,NW,320,0.0,0.0,80,0.00,,---,0.04,VWS V14.01,2013-06-18 13:26:00,
2013-06-18 09:27:00,75.4,68.8,29.77,NW,320,0.0,0.0,80,0.00,,---,0.04,VWS V14.01,2013-06-18 13:27:00,
2013-06-18 09:28:00,75.4,68.8,29.77,NW,320,0.0,0.0,80,0.00,,---,0.04,VWS V14.01,2013-06-18 13:28:00,
2013-06-18 09:29:00,75.6,69.0,29.77,NW,320,0.0,0.0,80,0.00,,---,0.04,VWS V14.01,2013-06-18 13:29:00,
2013-06-18 09:31:00,75.6,69.0,29.77,NW,320,0.0,0.0,80,0.00,,---,0.04,VWS V14.01,2013-06-18 13:31:00,
2013-06-18 09:32:00,75.7,69.1,29.77,NW,320,0.0,0.0,80,0.00,,---,0.04,VWS V14.01,2013-06-18 13:32:00,
2013-06-18 09:33:00,75.7,69.1,29.77,NW,320,0.0,0.0,80,0.00,,---,0.04,VWS V14.01,2013-06-18 13:33:00,
2013-06-18 09:34:00,75.7,69.1,29.77,NW,320,0.0,0.0,80,0.00,,---,0.04,VWS V14.01,2013-06-18 13:34:00,
2013-06-18 09:35:00,75.9,69.3,29.77,NW,320,0.0,0.0,80,0.00,,---,0.04,VWS V14.01,2013-06-18 13:35:00,
2013-06-18 09:36:00,75.9,69.3,29.74,NW,320,0.0,0.0,80,0.00,,---,0.04,VWS V14.01,2013-06-18 13:36:00,
2013-06-18 09:37:00,75.9,68.9,29.74,NW,320,0.0,0.0,79,0.00,,---,0.04,VWS V14.01,2013-06-18 13:37:00,
2013-06-18 09:38:00,75.9,68.9,29.74,NW,320,0.0,0.0,79,0.00,,---,0.04,VWS V14.01,2013-06-18 13:38:00,
2013-06-18 09:40:00,75.9,68.9,29.74,NW,320,0.0,0.0,79,0.00,,---,0.04,VWS V14.01,2013-06-18 13:40:00,
2013-06-18 09:41:00,75.9,68.9,29.74,NW,320,0.0,0.0,79,0.00,,---,0.04,VWS V14.01,2013-06-18 13:41:00,
2013-06-18 09:43:00,75.9,68.6,29.74,NW,320,0.0,0.0,78,0.00,,---,0.04,VWS V14.01,2013-06-18 13:43:00,
2013-06-18 09:45:00,76.1,68.4,29.74,NW,320,0.0,0.0,77,0.00,,---,0.04,VWS V14.01,2013-06-18 13:45:00,
2013-06-18 09:46:00,76.1,68.4,29.74,NW,320,0.0,0.0,77,0.00,,---,0.04,VWS V14.01,2013-06-18 13:46:00,
2013-06-18 09:48:00,76.1,68.4,29.74,NW,320,0.0,0.0,77,0.00,,---,0.04,VWS V14.01,2013-06-18 13:48:00,
2013-06-18 09:50:00,76.3,68.6,29.74,NW,320,0.0,0.0,77,0.00,,---,0.04,VWS V14.01,2013-06-18 13:50:00,
2013-06-18 09:52:00,76.5,68.3,29.74,NW,320,0.0,0.0,76,0.00,,---,0.04,VWS V14.01,2013-06-18 13:52:00,
2013-06-18 09:53:00,76.5,68.3,29.74,NW,320,0.0,0.0,76,0.00,,---,0.04,VWS V14.01,2013-06-18 13:53:00,
2013-06-18 09:55:00,76.5,68.3,29.74,NW,320,0.0,0.0,76,0.00,,---,0.04,VWS V14.01,2013-06-18 13:55:00,
2013-06-18 09:56:00,76.5,68.3,29.74,NW,320,0.0,0.0,76,0.00,,---,0.04,VWS V14.01,2013-06-18 13:56:00,
2013-06-18 09:57:00,76.5,68.3,29.74,NW,320,0.0,0.0,76,0.00,,---,0.04,VWS V14.01,2013-06-18 13:57:00,
2013-06-18 09:58:00,76.6,68.5,29.74,NW,320,0.0,0.0,76,0.00,,---,0.04,VWS V14.01,2013-06-18 13:58:00,
2013-06-18 10:00:00,76.6,68.1,29.74,NW,320,0.0,0.0,75,0.00,,---,0.04,VWS V14.01,2013-06-18 14:00:00,
2013-06-18 10:01:00,76.6,68.1,29.74,NW,320,0.0,0.0,75,0.00,,---,0.04,VWS V14.01,2013-06-18 14:01:00,
2013-06-18 10:02:00,76.6,68.1,29.74,NW,320,0.0,0.0,75,0.00,,---,0.04,VWS V14.01,2013-06-18 14:02:00,
2013-06-18 10:03:00,76.8,67.9,29.74,NW,320,0.0,0.0,74,0.00,,---,0.04,VWS V14.01,2013-06-18 14:03:00,
2013-06-18 10:06:00,76.8,66.3,29.74,NW,320,0.0,0.0,70,0.00,,---,0.04,VWS V14.01,2013-06-18 14:06:00,
2013-06-18 10:07:00,76.8,66.3,29.74,NW,320,0.0,0.0,70,0.00,,---,0.04,VWS V14.01,2013-06-18 14:07:00,
2013-06-18 10:08:00,76.8,66.3,29.74,NW,320,0.0,0.0,70,0.00,,---,0.04,VWS V14.01,2013-06-18 14:08:00,
2013-06-18 10:09:00,77.0,66.5,29.74,NW,320,0.0,0.0,70,0.00,,---,0.04,VWS V14.01,2013-06-18 14:09:00,
2013-06-18 10:11:00,77.0,66.5,29.74,NW,320,0.0,0.0,70,0.00,,---,0.04,VWS V14.01,2013-06-18 14:11:00,
2013-06-18 10:12:00,77.2,66.2,29.74,NW,320,0.0,0.0,69,0.00,,---,0.04,VWS V14.01,2013-06-18 14:12:00,
2013-06-18 10:13:00,77.2,66.2,29.74,NW,320,0.0,0.0,69,0.00,,---,0.04,VWS V14.01,2013-06-18 14:13:00,
2013-06-18 10:14:00,77.2,66.2,29.74,NW,320,0.0,0.0,69,0.00,,---,0.04,VWS V14.01,2013-06-18 14:14:00,
2013-06-18 10:16:00,77.4,66.0,29.74,NW,320,0.0,0.0,68,0.00,,---,0.04,VWS V14.01,2013-06-18 14:16:00,
2013-06-18 10:17:00,77.4,66.0,29.74,NW,320,0.0,0.0,68,0.00,,---,0.04,VWS V14.01,2013-06-18 14:17:00,
2013-06-18 10:18:00,77.4,66.0,29.74,NW,320,0.0,0.0,68,0.00,,---,0.04,VWS V14.01,2013-06-18 14:18:00,
2013-06-18 10:20:00,77.5,66.2,29.74,NW,320,0.0,0.0,68,0.00,,---,0.04,VWS V14.01,2013-06-18 14:20:00,
2013-06-18 10:21:00,77.5,64.0,29.74,NW,320,0.0,0.0,63,0.00,,---,0.04,VWS V14.01,2013-06-18 14:21:00,
2013-06-18 10:22:00,77.5,64.0,29.74,NW,320,0.0,0.0,63,0.00,,---,0.04,VWS V14.01,2013-06-18 14:22:00,
2013-06-18 10:24:00,77.4,56.7,29.74,NW,320,0.0,0.0,49,0.00,,---,0.04,VWS V14.01,2013-06-18 14:24:00,
2013-06-18 10:25:00,77.4,57.3,29.74,NW,320,0.0,0.0,50,0.00,,---,0.04,VWS V14.01,2013-06-18 14:25:00,
2013-06-18 10:26:00,77.4,58.4,29.74,NW,320,0.0,0.0,52,0.00,,---,0.04,VWS V14.01,2013-06-18 14:26:00,
2013-06-18 10:27:00,77.4,58.4,29.74,NW,320,0.0,0.0,52,0.00,,---,0.04,VWS V14.01,2013-06-18 14:27:00,
2013-06-18 10:29:00,77.5,58.0,29.74,NW,320,0.0,0.0,51,0.00,,---,0.04,VWS V14.01,2013-06-18 14:29:00,
2013-06-18 10:30:00,77.5,58.0,29.74,NW,320,0.0,0.0,51,0.00,,---,0.04,VWS V14.01,2013-06-18 14:30:00,
2013-06-18 10:32:00,77.4,56.7,29.74,NW,320,0.0,0.0,49,0.00,,---,0.04,VWS V14.01,2013-06-18 14:32:00,
2013-06-18 10:34:00,77.5,55.7,29.74,NW,320,0.0,0.0,47,0.00,,---,0.04,VWS V14.01,2013-06-18 14:34:00,
2013-06-18 10:35:00,77.5,56.3,29.74,NW,320,0.0,0.0,48,0.00,,---,0.04,VWS V14.01,2013-06-18 14:35:00,
2013-06-18 10:37:00,77.5,56.3,29.74,NW,320,0.0,0.0,48,0.00,,---,0.04,VWS V14.01,2013-06-18 14:37:00,
2013-06-18 10:39:00,77.7,56.5,29.74,NW,320,0.0,0.0,48,0.00,,---,0.04,VWS V14.01,2013-06-18 14:39:00,
2013-06-18 10:40:00,77.7,56.5,29.74,NW,320,0.0,0.0,48,0.00,,---,0.04,VWS V14.01,2013-06-18 14:40:00,
2013-06-18 10:42:00,77.7,55.9,29.74,NW,320,0.0,0.0,47,0.00,,---,0.04,VWS V14.01,2013-06-18 14:42:00,
2013-06-18 10:43:00,77.7,55.3,29.74,NW,320,0.0,0.0,46,0.00,,---,0.04,VWS V14.01,2013-06-18 14:43:00,
2013-06-18 10:44:00,77.9,55.5,29.74,NW,320,0.0,0.0,46,0.00,,---,0.04,VWS V14.01,2013-06-18 14:44:00,
2013-06-18 10:46:00,77.9,55.5,29.74,NW,320,0.0,0.0,46,0.00,,---,0.04,VWS V14.01,2013-06-18 14:46:00,
2013-06-18 10:47:00,77.7,53.5,29.74,NW,320,0.0,0.0,43,0.00,,---,0.04,VWS V14.01,2013-06-18 14:47:00,
2013-06-18 10:48:00,77.7,53.5,29.74,NW,320,0.0,0.0,43,0.00,,---,0.04,VWS V14.01,2013-06-18 14:48:00,
2013-06-18 10:49:00,77.7,53.5,29.74,NW,320,0.0,0.0,43,0.00,,---,0.04,VWS V14.01,2013-06-18 14:49:00,
2013-06-18 10:51:00,77.9,54.9,29.74,NW,320,0.0,0.0,45,0.00,,---,0.04,VWS V14.01,2013-06-18 14:51:00,
2013-06-18 10:52:00,78.1,55.0,29.74,NW,320,0.0,0.0,45,0.00,,---,0.04,VWS V14.01,2013-06-18 14:52:00,
2013-06-18 10:53:00,78.1,55.6,29.74,NW,320,0.0,0.0,46,0.00,,---,0.04,VWS V14.01,2013-06-18 14:53:00,
2013-06-18 10:54:00,78.1,55.6,29.74,NW,320,0.0,0.0,46,0.00,,---,0.04,VWS V14.01,2013-06-18 14:54:00,
2013-06-18 10:56:00,78.1,55.0,29.74,NW,320,0.0,0.0,45,0.00,,---,0.04,VWS V14.01,2013-06-18 14:56:00,
2013-06-18 10:57:00,78.1,55.0,29.74,NW,320,2.2,2.2,45,0.00,,---,0.04,VWS V14.01,2013-06-18 14:57:00,
2013-06-18 10:58:00,78.3,55.2,29.74,SSE,153,3.1,3.6,45,0.00,,---,0.04,VWS V14.01,2013-06-18 14:58:00,
2013-06-18 10:59:00,78.3,55.8,29.74,SSE,163,3.6,3.6,46,0.00,,---,0.04,VWS V14.01,2013-06-18 14:59:00,
2013-06-18 11:02:00,78.1,54.4,29.74,SSE,163,0.0,0.0,44,0.00,,---,0.04,VWS V14.01,2013-06-18 15:02:00,
2013-06-18 11:03:00,78.1,54.4,29.74,SSE,163,0.0,0.0,44,0.00,,---,0.04,VWS V14.01,2013-06-18 15:03:00,
2013-06-18 11:04:00,78.1,53.2,29.74,ENE,65,2.2,2.7,42,0.00,,---,0.04,VWS V14.01,2013-06-18 15:04:00,
2013-06-18 11:07:00,78.1,53.8,29.74,ENE,65,0.0,0.0,43,0.00,,---,0.04,VWS V14.01,2013-06-18 15:07:00,
2013-06-18 11:08:00,78.1,53.8,29.74,ENE,65,0.0,0.0,43,0.00,,---,0.04,VWS V14.01,2013-06-18 15:08:00,
2013-06-18 11:09:00,78.1,54.4,29.74,ENE,65,0.0,0.0,44,0.00,,---,0.04,VWS V14.01,2013-06-18 15:09:00,
2013-06-18 11:12:00,78.1,54.4,29.74,South,174,0.0,0.0,44,0.00,,---,0.04,VWS V14.01,2013-06-18 15:12:00,
2013-06-18 11:13:00,78.1,54.4,29.74,South,174,0.0,0.0,44,0.00,,---,0.04,VWS V14.01,2013-06-18 15:13:00,
2013-06-18 11:14:00,78.3,54.6,29.74,South,174,0.0,0.0,44,0.00,,---,0.04,VWS V14.01,2013-06-18 15:14:00,
2013-06-18 11:17:00,78.3,54.6,29.74,South,174,0.0,0.0,44,0.00,,---,0.04,VWS V14.01,2013-06-18 15:17:00,
2013-06-18 11:18:00,78.3,54.0,29.74,South,174,0.0,0.0,43,0.00,,---,0.04,VWS V14.01,2013-06-18 15:18:00,
2013-06-18 11:20:00,78.3,54.0,29.74,South,174,0.0,0.0,43,0.00,,---,0.04,VWS V14.01,2013-06-18 15:20:00,
2013-06-18 11:22:00,78.4,54.7,29.74,South,173,0.0,0.0,44,0.00,,---,0.04,VWS V14.01,2013-06-18 15:22:00,
2013-06-18 11:23:00,78.4,54.7,29.74,South,174,0.0,0.0,44,0.00,,---,0.04,VWS V14.01,2013-06-18 15:23:00,
2013-06-18 11:25:00,78.4,54.7,29.74,South,174,0.0,0.0,44,0.00,,---,0.04,VWS V14.01,2013-06-18 15:25:00,
2013-06-18 11:27:00,78.4,54.1,29.74,South,174,0.0,0.0,43,0.00,,---,0.04,VWS V14.01,2013-06-18 15:27:00,
2013-06-18 11:28:00,78.4,54.1,29.74,South,174,0.0,0.0,43,0.00,,---,0.04,VWS V14.01,2013-06-18 15:28:00,
2013-06-18 11:30:00,78.6,54.3,29.74,South,174,0.0,0.0,43,0.00,,---,0.04,VWS V14.01,2013-06-18 15:30:00,
2013-06-18 11:32:00,78.6,53.6,29.74,South,173,0.0,0.0,42,0.00,,---,0.04,VWS V14.01,2013-06-18 15:32:00,
2013-06-18 11:33:00,78.6,53.6,29.74,South,174,0.0,0.0,42,0.00,,---,0.04,VWS V14.01,2013-06-18 15:33:00,
2013-06-18 11:35:00,78.8,53.8,29.74,South,174,0.0,0.0,42,0.00,,---,0.04,VWS V14.01,2013-06-18 15:35:00,
2013-06-18 11:38:00,78.8,53.8,29.74,South,173,0.0,0.0,42,0.00,,---,0.04,VWS V14.01,2013-06-18 15:38:00,
2013-06-18 11:40:00,79.0,54.0,29.74,South,174,0.0,0.0,42,0.00,,---,0.04,VWS V14.01,2013-06-18 15:40:00,
2013-06-18 11:43:00,79.0,52.6,29.74,South,189,0.0,0.0,40,0.00,,---,0.04,VWS V14.01,2013-06-18 15:43:00,
2013-06-18 11:45:00,79.2,52.8,29.74,NW,321,0.0,0.0,40,0.00,,---,0.04,VWS V14.01,2013-06-18 15:45:00,
2013-06-18 11:48:00,79.2,52.1,29.74,NW,325,0.0,0.0,39,0.00,,---,0.04,VWS V14.01,2013-06-18 15:48:00,
2013-06-18 11:49:00,79.2,52.8,29.74,NW,325,0.0,0.0,40,0.00,,---,0.04,VWS V14.01,2013-06-18 15:49:00,
2013-06-18 11:50:00,79.3,53.0,29.74,NW,324,0.0,0.0,40,0.00,,---,0.04,VWS V14.01,2013-06-18 15:50:00,
2013-06-18 11:53:00,79.3,51.5,29.71,NW,325,0.0,0.0,38,0.00,,---,0.04,VWS V14.01,2013-06-18 15:53:00,
2013-06-18 11:54:00,79.2,49.2,29.71,NW,325,0.0,0.0,35,0.00,,---,0.04,VWS V14.01,2013-06-18 15:54:00,
2013-06-18 11:55:00,79.3,48.6,29.71,NW,325,0.0,0.0,34,0.00,,---,0.04,VWS V14.01,2013-06-18 15:55:00,
2013-06-18 11:58:00,79.3,49.3,29.71,NW,325,0.0,0.0,35,0.00,,---,0.04,VWS V14.01,2013-06-18 15:58:00,
2013-06-18 11:59:00,79.3,49.3,29.71,NW,325,0.0,0.0,35,0.00,,---,0.04,VWS V14.01,2013-06-18 15:59:00,
2013-06-18 12:00:00,79.5,49.5,29.71,NW,325,0.0,0.0,35,0.00,,---,0.04,VWS V14.01,2013-06-18 16:00:00,
2013-06-18 12:03:00,79.5,50.2,29.71,NW,325,0.0,0.0,36,0.00,,---,0.04,VWS V14.01,2013-06-18 16:03:00,
2013-06-18 12:04:00,79.5,50.2,29.71,NW,325,0.0,0.0,36,0.00,,---,0.04,VWS V14.01,2013-06-18 16:04:00,
2013-06-18 12:05:00,79.5,51.0,29.71,NW,325,0.0,0.0,37,0.00,,---,0.04,VWS V14.01,2013-06-18 16:05:00,
2013-06-18 12:08:00,79.5,51.7,29.71,NW,325,0.0,0.0,38,0.00,,---,0.04,VWS V14.01,2013-06-18 16:08:00,
2013-06-18 12:09:00,79.5,51.7,29.71,NW,325,0.0,0.0,38,0.00,,---,0.04,VWS V14.01,2013-06-18 16:09:00,
2013-06-18 12:11:00,79.7,51.9,29.71,NW,325,0.0,0.0,38,0.00,,---,0.04,VWS V14.01,2013-06-18 16:11:00,
2013-06-18 12:13:00,79.7,51.2,29.71,NW,325,0.0,0.0,37,0.00,,---,0.04,VWS V14.01,2013-06-18 16:13:00,
2013-06-18 12:14:00,79.7,51.2,29.71,NE,42,0.0,0.0,37,0.00,,---,0.04,VWS V14.01,2013-06-18 16:14:00,
2013-06-18 12:16:00,79.7,51.9,29.71,NE,42,0.0,0.0,38,0.00,,---,0.04,VWS V14.01,2013-06-18 16:16:00,
2013-06-18 12:18:00,79.7,51.2,29.71,NE,42,0.0,0.0,37,0.00,,---,0.04,VWS V14.01,2013-06-18 16:18:00,
2013-06-18 12:19:00,79.7,51.9,29.71,NE,42,0.0,0.0,38,0.00,,---,0.04,VWS V14.01,2013-06-18 16:19:00,
2013-06-18 12:21:00,79.9,52.7,29.71,NE,42,0.0,0.0,39,0.00,,---,0.04,VWS V14.01,2013-06-18 16:21:00,
2013-06-18 12:23:00,79.9,52.0,29.71,NE,51,0.0,0.0,38,0.00,,---,0.04,VWS V14.01,2013-06-18 16:23:00,
2013-06-18 12:24:00,79.7,48.1,29.71,NE,51,0.0,0.0,33,0.00,,---,0.04,VWS V14.01,2013-06-18 16:24:00,
2013-06-18 12:26:00,79.9,49.8,29.71,South,169,0.0,0.0,35,0.00,,---,0.04,VWS V14.01,2013-06-18 16:26:00,
2013-06-18 12:29:00,80.1,50.7,29.71,SSE,156,0.0,0.0,36,0.00,,---,0.04,VWS V14.01,2013-06-18 16:29:00,
2013-06-18 12:30:00,80.1,51.5,29.71,SE,142,0.0,0.0,37,0.00,,---,0.04,VWS V14.01,2013-06-18 16:30:00,
2013-06-18 12:32:00,80.1,50.7,29.71,SE,142,0.0,0.0,36,0.00,,---,0.04,VWS V14.01,2013-06-18 16:32:00,
2013-06-18 12:34:00,80.2,53.1,29.71,ENE,57,0.0,3.1,39,0.00,,---,0.04,VWS V14.01,2013-06-18 16:34:00,
2013-06-18 12:35:00,80.2,50.9,29.71,ENE,57,2.2,2.7,36,0.00,,---,0.04,VWS V14.01,2013-06-18 16:35:00,
2013-06-18 12:37:00,80.2,49.3,29.71,ENE,58,2.7,2.7,34,0.00,,---,0.04,VWS V14.01,2013-06-18 16:37:00,
2013-06-18 12:39:00,80.2,50.1,29.71,SSE,158,2.7,2.7,35,0.00,,---,0.04,VWS V14.01,2013-06-18 16:39:00,
2013-06-18 12:40:00,80.2,50.9,29.71,SE,138,3.6,3.6,36,0.00,,---,0.04,VWS V14.01,2013-06-18 16:40:00,
2013-06-18 12:42:00,80.1,49.2,29.71,NNE,27,3.1,3.1,34,0.00,,---,0.04,VWS V14.01,2013-06-18 16:42:00,
2013-06-18 12:44:00,79.7,48.1,29.71,North,353,3.1,4.0,33,0.00,,---,0.04,VWS V14.01,2013-06-18 16:44:00,
2013-06-18 12:45:00,79.7,47.3,29.71,ENE,62,0.0,4.0,32,0.00,,---,0.04,VWS V14.01,2013-06-18 16:45:00,
2013-06-18 12:47:00,79.7,49.7,29.71,ESE,106,3.1,3.1,35,0.00,,---,0.04,VWS V14.01,2013-06-18 16:47:00,
2013-06-18 12:50:00,79.5,49.5,29.71,ESE,120,0.0,0.0,35,0.00,,---,0.04,VWS V14.01,2013-06-18 16:50:00,
2013-06-18 12:51:00,79.3,49.3,29.68,SE,138,2.2,3.6,35,0.00,,---,0.04,VWS V14.01,2013-06-18 16:51:00,
2013-06-18 12:52:00,79.3,49.3,29.68,SE,138,0.0,2.2,35,0.00,,---,0.04,VWS V14.01,2013-06-18 16:52:00,
2013-06-18 12:55:00,79.2,49.9,29.68,SSE,153,0.0,0.0,36,0.00,,---,0.04,VWS V14.01,2013-06-18 16:55:00,
2013-06-18 12:56:00,79.2,50.7,29.68,SSE,153,2.7,2.7,37,0.00,,---,0.04,VWS V14.01,2013-06-18 16:56:00,
2013-06-18 12:57:00,79.0,49.8,29.68,East,96,0.0,2.7,36,0.00,,---,0.04,VWS V14.01,2013-06-18 16:57:00,
2013-06-18 13:00:00,78.3,49.9,29.68,SSE,150,5.8,6.3,37,0.00,,---,0.04,VWS V14.01,2013-06-18 17:00:00,
2013-06-18 13:01:00,78.1,49.7,29.68,SSE,165,4.9,4.9,37,0.00,,---,0.04,VWS V14.01,2013-06-18 17:01:00,
2013-06-18 13:02:00,77.9,49.6,29.68,SSE,151,4.0,4.9,37,0.04,,---,0.08,VWS V14.01,2013-06-18 17:02:00,
2013-06-18 13:03:00,77.7,50.8,29.68,NW,310,3.6,3.6,39,0.08,,---,0.12,VWS V14.01,2013-06-18 17:03:00,
2013-06-18 13:06:00,75.4,42.7,29.68,SE,139,4.9,4.9,31,0.12,,---,0.16,VWS V14.01,2013-06-18 17:06:00,
2013-06-18 13:07:00,74.3,41.7,29.71,SSE,148,4.9,4.9,31,0.28,,---,0.31,VWS V14.01,2013-06-18 17:07:00,
2013-06-18 13:08:00,73.8,41.3,29.71,South,181,3.1,6.3,31,0.31,,---,0.35,VWS V14.01,2013-06-18 17:08:00,
2013-06-18 13:12:00,72.5,44.1,29.71,NW,324,5.8,5.8,36,0.59,,---,0.63,VWS V14.01,2013-06-18 17:12:00,
2013-06-18 13:13:00,71.4,46.5,29.71,WNW,303,4.0,6.3,41,0.67,,---,0.71,VWS V14.01,2013-06-18 17:13:00,
2013-06-18 13:14:00,71.4,46.5,29.71,West,264,5.4,6.3,41,0.83,,---,0.87,VWS V14.01,2013-06-18 17:14:00,
2013-06-18 13:20:00,69.3,42.6,29.71,NW,318,0.0,0.0,38,1.02,,---,1.06,VWS V14.01,2013-06-18 17:20:00,
2013-06-18 13:25:00,69.3,43.3,29.68,NNW,342,0.0,0.0,39,1.06,,---,1.10,VWS V14.01,2013-06-18 17:25:00,
2013-06-18 13:26:00,69.3,43.3,29.68,NNW,342,0.0,0.0,39,1.06,,---,1.10,VWS V14.01,2013-06-18 17:26:00,
2013-06-18 13:30:00,69.3,45.8,29.68,NNW,342,0.0,0.0,43,1.06,,---,1.10,VWS V14.01,2013-06-18 17:30:00,
2013-06-18 13:31:00,69.3,45.8,29.68,NNW,342,0.0,0.0,43,1.06,,---,1.10,VWS V14.01,2013-06-18 17:31:00,
2013-06-18 13:35:00,69.4,46.6,29.68,NNW,342,0.0,0.0,44,1.06,,---,1.10,VWS V14.01,2013-06-18 17:35:00,
2013-06-18 13:36:00,69.4,46.6,29.68,NNW,342,0.0,0.0,44,1.06,,---,1.10,VWS V14.01,2013-06-18 17:36:00,
2013-06-18 13:41:00,69.6,47.4,29.68,NNW,342,0.0,0.0,45,1.14,,---,1.18,VWS V14.01,2013-06-18 17:41:00,
2013-06-18 13:43:00,69.8,48.1,29.68,NNW,342,0.0,0.0,46,1.14,,---,1.18,VWS V14.01,2013-06-18 17:43:00,
2013-06-18 13:46:00,69.6,48.0,29.68,NNW,342,0.0,0.0,46,1.14,,---,1.18,VWS V14.01,2013-06-18 17:46:00,
2013-06-18 13:47:00,69.6,48.0,29.68,NNW,342,0.0,0.0,46,1.18,,---,1.22,VWS V14.01,2013-06-18 17:47:00,
2013-06-18 13:49:00,69.6,48.5,29.68,NNW,342,0.0,0.0,47,1.22,,---,1.26,VWS V14.01,2013-06-18 17:49:00,
2013-06-18 13:51:00,69.4,48.9,29.68,NNW,342,0.0,0.0,48,1.22,,---,1.26,VWS V14.01,2013-06-18 17:51:00,
2013-06-18 13:52:00,69.3,48.8,29.68,NNW,342,0.0,0.0,48,1.22,,---,1.26,VWS V14.01,2013-06-18 17:52:00,
2013-06-18 13:54:00,69.1,48.0,29.68,NNW,342,0.0,0.0,47,1.22,,---,1.26,VWS V14.01,2013-06-18 17:54:00,
2013-06-18 13:56:00,68.9,47.9,29.68,NNW,342,0.0,0.0,47,1.22,,---,1.26,VWS V14.01,2013-06-18 17:56:00,
2013-06-18 13:57:00,68.9,47.9,29.68,NNW,342,0.0,0.0,47,1.22,,---,1.26,VWS V14.01,2013-06-18 17:57:00,
2013-06-18 14:00:00,69.1,48.6,29.68,NNW,342,0.0,0.0,48,1.22,,---,1.26,VWS V14.01,2013-06-18 18:00:00,
2013-06-18 14:01:00,69.1,49.1,29.68,NNW,342,0.0,0.0,49,1.22,,---,1.26,VWS V14.01,2013-06-18 18:01:00,
2013-06-18 14:02:00,69.1,49.1,29.68,NNW,342,0.0,0.0,49,1.18,,---,1.26,VWS V14.01,2013-06-18 18:02:00,
2013-06-18 14:05:00,69.3,49.8,29.68,NNW,342,0.0,0.0,50,1.10,,---,1.26,VWS V14.01,2013-06-18 18:05:00,
2013-06-18 14:07:00,69.3,49.8,29.68,NNW,342,0.0,0.0,50,1.10,,---,1.26,VWS V14.01,2013-06-18 18:07:00,
2013-06-18 14:08:00,69.3,49.8,29.68,NNW,342,0.0,0.0,50,0.91,,---,1.26,VWS V14.01,2013-06-18 18:08:00,
2013-06-18 14:10:00,69.3,49.3,29.68,NNW,342,0.0,0.0,49,0.83,,---,1.26,VWS V14.01,2013-06-18 18:10:00,
2013-06-18 14:13:00,69.4,49.5,29.68,NNW,342,0.0,0.0,49,0.63,,---,1.26,VWS V14.01,2013-06-18 18:13:00,
2013-06-18 14:15:00,69.6,50.2,29.68,NNW,342,0.0,0.0,50,0.43,,---,1.26,VWS V14.01,2013-06-18 18:15:00,
2013-06-18 14:18:00,69.8,49.8,29.68,NNW,342,0.0,0.0,49,0.24,,---,1.26,VWS V14.01,2013-06-18 18:18:00,
2013-06-18 14:20:00,70.0,50.0,29.68,NNW,342,0.0,0.0,49,0.20,,---,1.26,VWS V14.01,2013-06-18 18:20:00,
2013-06-18 14:23:00,70.2,50.1,29.68,NNW,342,0.0,0.0,49,0.16,,---,1.26,VWS V14.01,2013-06-18 18:23:00,
2013-06-18 14:24:00,70.0,50.0,29.68,NNW,342,0.0,0.0,49,0.16,,---,1.26,VWS V14.01,2013-06-18 18:24:00,
2013-06-18 14:26:00,70.0,49.4,29.68,NNW,342,0.0,0.0,48,0.16,,---,1.26,VWS V14.01,2013-06-18 18:26:00,
2013-06-18 14:28:00,70.0,49.4,29.68,NNW,342,0.0,0.0,48,0.16,,---,1.26,VWS V14.01,2013-06-18 18:28:00,
2013-06-18 14:29:00,70.0,49.4,29.68,NNW,342,0.0,0.0,48,0.16,,---,1.26,VWS V14.01,2013-06-18 18:29:00,
2013-06-18 14:31:00,70.2,50.1,29.68,NNW,342,0.0,0.0,49,0.16,,---,1.26,VWS V14.01,2013-06-18 18:31:00,
2013-06-18 14:33:00,70.2,50.1,29.68,NNW,342,0.0,0.0,49,0.16,,---,1.26,VWS V14.01,2013-06-18 18:33:00,
2013-06-18 14:34:00,70.2,50.1,29.68,NNW,342,0.0,0.0,49,0.16,,---,1.26,VWS V14.01,2013-06-18 18:34:00,
2013-06-18 14:36:00,70.3,50.3,29.68,NNW,342,0.0,0.0,49,0.16,,---,1.26,VWS V14.01,2013-06-18 18:36:00,
2013-06-18 14:38:00,70.3,50.3,29.68,NNW,342,0.0,0.0,49,0.12,,---,1.26,VWS V14.01,2013-06-18 18:38:00,
2013-06-18 14:39:00,70.3,50.3,29.68,NNW,342,0.0,0.0,49,0.12,,---,1.26,VWS V14.01,2013-06-18 18:39:00,
2013-06-18 14:45:00,70.5,51.0,29.68,NNW,342,0.0,0.0,50,0.12,,---,1.30,VWS V14.01,2013-06-18 18:45:00,
2013-06-18 14:46:00,70.3,50.8,29.68,NNW,342,0.0,0.0,50,0.12,,---,1.30,VWS V14.01,2013-06-18 18:46:00,
2013-06-18 14:47:00,70.3,50.8,29.68,NNW,342,0.0,0.0,50,0.12,,---,1.30,VWS V14.01,2013-06-18 18:47:00,
2013-06-18 14:51:00,70.5,54.1,29.68,West,272,8.1,8.1,56,0.08,,---,1.34,VWS V14.01,2013-06-18 18:51:00,
2013-06-18 14:52:00,70.5,54.6,29.68,South,191,2.7,8.1,57,0.08,,---,1.34,VWS V14.01,2013-06-18 18:52:00,
2013-06-18 14:56:00,70.0,51.6,29.68,NW,309,3.1,5.4,52,0.20,,---,1.46,VWS V14.01,2013-06-18 18:56:00,
2013-06-18 14:57:00,70.0,51.6,29.68,NW,320,3.6,5.4,52,0.24,,---,1.50,VWS V14.01,2013-06-18 18:57:00,
2013-06-18 15:02:00,69.3,49.8,29.68,WSW,248,5.4,5.4,50,0.35,,---,1.61,VWS V14.01,2013-06-18 19:02:00,
2013-06-18 15:03:00,69.1,49.7,29.68,NNE,22,2.7,3.1,50,0.35,,---,1.61,VWS V14.01,2013-06-18 19:03:00,
2013-06-18 15:07:00,68.9,51.1,29.71,NNW,336,3.6,5.4,53,0.51,,---,1.77,VWS V14.01,2013-06-18 19:07:00,
2013-06-18 15:08:00,68.9,51.6,29.71,WNW,288,2.7,5.8,54,0.51,,---,1.77,VWS V14.01,2013-06-18 19:08:00,
2013-06-18 15:12:00,68.7,53.4,29.71,NW,319,4.0,6.3,58,0.59,,---,1.85,VWS V14.01,2013-06-18 19:12:00,
2013-06-18 15:13:00,68.7,53.4,29.71,North,353,3.1,5.8,58,0.59,,---,1.85,VWS V14.01,2013-06-18 19:13:00,
2013-06-18 15:14:00,68.5,53.7,29.71,North,353,2.7,3.1,59,0.59,,---,1.85,VWS V14.01,2013-06-18 19:14:00,
2013-06-18 15:17:00,68.5,55.5,29.71,West,266,2.7,4.9,63,0.67,,---,1.93,VWS V14.01,2013-06-18 19:17:00,
2013-06-18 15:19:00,68.5,55.0,29.71,WSW,246,2.2,5.4,62,0.67,,---,1.93,VWS V14.01,2013-06-18 19:19:00,
2013-06-18 15:22:00,68.4,54.4,29.68,NW,307,4.0,5.4,61,0.67,,---,1.93,VWS V14.01,2013-06-18 19:22:00,
2013-06-18 15:24:00,68.2,53.3,29.68,SSE,155,3.1,4.0,59,0.71,,---,1.97,VWS V14.01,2013-06-18 19:24:00,
2013-06-18 15:28:00,68.2,54.2,29.68,West,280,7.2,7.2,61,0.71,,---,1.97,VWS V14.01,2013-06-18 19:28:00,
2013-06-18 15:29:00,68.0,52.7,29.68,SW,227,3.6,3.6,58,0.71,,---,1.97,VWS V14.01,2013-06-18 19:29:00,
2013-06-18 15:34:00,67.6,49.4,29.68,WNW,302,0.0,0.0,52,0.75,,---,2.01,VWS V14.01,2013-06-18 19:34:00,
2013-06-18 15:40:00,67.6,48.4,29.71,NW,326,0.0,0.0,50,0.75,,---,2.01,VWS V14.01,2013-06-18 19:40:00,
2013-06-18 15:45:00,67.5,48.2,29.71,SW,224,0.0,0.0,50,0.71,,---,2.01,VWS V14.01,2013-06-18 19:45:00,
2013-06-18 15:50:00,67.6,48.9,29.71,SW,224,0.0,0.0,51,0.75,,---,2.05,VWS V14.01,2013-06-18 19:50:00,
2013-06-18 15:55:00,67.5,51.2,29.74,SW,224,0.0,0.0,56,0.71,,---,2.09,VWS V14.01,2013-06-18 19:55:00,
2013-06-18 15:56:00,67.5,51.2,29.74,SW,224,0.0,0.0,56,0.71,,---,2.09,VWS V14.01,2013-06-18 19:56:00,
2013-06-18 16:00:00,67.6,52.3,29.74,SW,224,0.0,0.0,58,0.59,,---,2.17,VWS V14.01,2013-06-18 20:00:00,
2013-06-18 16:01:00,67.6,52.3,29.74,SW,224,0.0,0.0,58,0.59,,---,2.17,VWS V14.01,2013-06-18 20:01:00,
2013-06-18 16:05:00,67.6,52.3,29.71,SW,224,0.0,0.0,58,0.51,,---,2.17,VWS V14.01,2013-06-18 20:05:00,
2013-06-18 16:06:00,67.6,52.8,29.71,SW,224,0.0,0.0,59,0.43,,---,2.17,VWS V14.01,2013-06-18 20:06:00,
2013-06-18 16:10:00,67.6,53.3,29.71,NW,321,0.0,0.0,60,0.35,,---,2.17,VWS V14.01,2013-06-18 20:10:00,
2013-06-18 16:11:00,67.6,53.3,29.71,NW,321,0.0,0.0,60,0.35,,---,2.17,VWS V14.01,2013-06-18 20:11:00,
2013-06-18 16:12:00,67.6,53.3,29.71,NW,321,0.0,0.0,60,0.31,,---,2.17,VWS V14.01,2013-06-18 20:12:00,
2013-06-18 16:15:00,67.5,53.1,29.71,SW,220,0.0,0.0,60,0.35,,---,2.20,VWS V14.01,2013-06-18 20:15:00,
2013-06-18 16:16:00,67.5,53.1,29.71,SW,220,0.0,0.0,60,0.31,,---,2.20,VWS V14.01,2013-06-18 20:16:00,
2013-06-18 16:17:00,67.5,53.6,29.71,SW,220,0.0,0.0,61,0.28,,---,2.20,VWS V14.01,2013-06-18 20:17:00,
2013-06-18 16:21:00,67.6,54.6,29.71,SW,220,0.0,0.0,63,0.28,,---,2.20,VWS V14.01,2013-06-18 20:21:00,
2013-06-18 16:22:00,67.6,54.6,29.71,SW,220,0.0,0.0,63,0.28,,---,2.20,VWS V14.01,2013-06-18 20:22:00,
2013-06-18 16:23:00,67.6,54.6,29.71,SW,220,0.0,0.0,63,0.28,,---,2.20,VWS V14.01,2013-06-18 20:23:00,
2013-06-18 16:26:00,67.6,55.5,29.71,SW,220,0.0,0.0,65,0.24,,---,2.20,VWS V14.01,2013-06-18 20:26:00,
2013-06-18 16:27:00,67.6,55.5,29.71,SW,220,0.0,0.0,65,0.28,,---,2.24,VWS V14.01,2013-06-18 20:27:00,
2013-06-18 16:28:00,67.6,55.5,29.71,SW,220,0.0,0.0,65,0.28,,---,2.24,VWS V14.01,2013-06-18 20:28:00,
2013-06-18 16:31:00,67.6,55.5,29.71,NW,311,0.0,0.0,65,0.28,,---,2.24,VWS V14.01,2013-06-18 20:31:00,
2013-06-18 16:32:00,67.8,56.1,29.71,NW,311,0.0,0.0,66,0.28,,---,2.24,VWS V14.01,2013-06-18 20:32:00,
2013-06-18 16:33:00,67.8,56.1,29.71,NW,311,0.0,0.0,66,0.28,,---,2.24,VWS V14.01,2013-06-18 20:33:00,
2013-06-18 16:36:00,67.8,56.5,29.71,NE,35,0.0,2.7,67,0.24,,---,2.24,VWS V14.01,2013-06-18 20:36:00,
2013-06-18 16:37:00,67.8,56.5,29.71,NNW,343,2.2,2.7,67,0.24,,---,2.24,VWS V14.01,2013-06-18 20:37:00,
2013-06-18 16:38:00,67.8,56.5,29.71,NNW,343,0.0,2.7,67,0.28,,---,2.28,VWS V14.01,2013-06-18 20:38:00,
2013-06-18 16:41:00,67.8,56.9,29.71,West,269,0.0,2.2,68,0.28,,---,2.28,VWS V14.01,2013-06-18 20:41:00,
2013-06-18 16:42:00,67.8,57.3,29.71,WSW,256,0.0,2.2,69,0.28,,---,2.28,VWS V14.01,2013-06-18 20:42:00,
2013-06-18 16:43:00,67.8,57.3,29.71,WSW,256,0.0,2.2,69,0.28,,---,2.28,VWS V14.01,2013-06-18 20:43:00,
2013-06-18 16:46:00,67.8,56.5,29.71,NW,311,0.0,0.0,67,0.31,,---,2.32,VWS V14.01,2013-06-18 20:46:00,
2013-06-18 16:47:00,67.8,56.5,29.71,NW,311,0.0,0.0,67,0.31,,---,2.32,VWS V14.01,2013-06-18 20:47:00,
2013-06-18 16:48:00,67.8,56.1,29.71,NW,311,0.0,0.0,66,0.31,,---,2.32,VWS V14.01,2013-06-18 20:48:00,
2013-06-18 16:52:00,67.8,56.5,29.71,WNW,300,0.0,4.0,67,0.28,,---,2.32,VWS V14.01,2013-06-18 20:52:00,
2013-06-18 16:53:00,67.8,56.5,29.71,North,3,0.0,0.0,67,0.28,,---,2.32,VWS V14.01,2013-06-18 20:53:00,
2013-06-18 16:57:00,67.8,54.8,29.71,NW,322,0.0,0.0,63,0.24,,---,2.32,VWS V14.01,2013-06-18 20:57:00,
2013-06-18 16:58:00,67.8,54.3,29.71,NW,322,0.0,0.0,62,0.20,,---,2.32,VWS V14.01,2013-06-18 20:58:00,
2013-06-18 16:59:00,67.8,54.8,29.71,NNW,341,0.0,3.1,63,0.20,,---,2.32,VWS V14.01,2013-06-18 20:59:00,
2013-06-18 17:02:00,67.8,54.8,29.71,NNW,341,0.0,0.0,63,0.16,,---,2.32,VWS V14.01,2013-06-18 21:02:00,
2013-06-18 17:03:00,67.8,54.8,29.71,NNW,341,3.1,3.1,63,0.16,,---,2.32,VWS V14.01,2013-06-18 21:03:00,
2013-06-18 17:04:00,67.8,54.8,29.71,NNW,341,0.0,0.0,63,0.16,,---,2.32,VWS V14.01,2013-06-18 21:04:00,
2013-06-18 17:07:00,67.6,51.4,29.71,NE,41,0.0,0.0,56,0.16,,---,2.32,VWS V14.01,2013-06-18 21:07:00,
2013-06-18 17:08:00,67.6,50.4,29.71,NE,41,0.0,0.0,54,0.16,,---,2.32,VWS V14.01,2013-06-18 21:08:00,
2013-06-18 17:09:00,67.6,49.9,29.71,NE,41,0.0,0.0,53,0.16,,---,2.32,VWS V14.01,2013-06-18 21:09:00,
2013-06-18 17:12:00,67.6,50.4,29.71,NE,41,0.0,0.0,54,0.16,,---,2.32,VWS V14.01,2013-06-18 21:12:00,
2013-06-18 17:13:00,67.8,50.6,29.71,NE,41,0.0,0.0,54,0.16,,---,2.32,VWS V14.01,2013-06-18 21:13:00,
2013-06-18 17:14:00,67.8,50.6,29.71,NE,41,0.0,0.0,54,0.12,,---,2.32,VWS V14.01,2013-06-18 21:14:00,
2013-06-18 17:17:00,67.6,49.9,29.71,NNE,17,0.0,0.0,53,0.16,,---,2.36,VWS V14.01,2013-06-18 21:17:00,
2013-06-18 17:18:00,67.6,49.4,29.71,NNE,17,2.2,3.6,52,0.16,,---,2.36,VWS V14.01,2013-06-18 21:18:00,
2013-06-18 17:19:00,67.6,49.4,29.71,NNE,17,0.0,2.2,52,0.16,,---,2.36,VWS V14.01,2013-06-18 21:19:00,
2013-06-18 17:22:00,67.6,48.9,29.71,NNE,17,0.0,0.0,51,0.16,,---,2.36,VWS V14.01,2013-06-18 21:22:00,
2013-06-18 17:23:00,67.6,48.9,29.71,NNE,17,0.0,0.0,51,0.16,,---,2.36,VWS V14.01,2013-06-18 21:23:00,
2013-06-18 17:24:00,67.6,48.9,29.71,NNE,17,0.0,0.0,51,0.16,,---,2.36,VWS V14.01,2013-06-18 21:24:00,
2013-06-18 17:27:00,67.6,49.4,29.71,WNW,283,0.0,0.0,52,0.12,,---,2.36,VWS V14.01,2013-06-18 21:27:00,
2013-06-18 17:28:00,67.6,49.4,29.71,WNW,283,0.0,0.0,52,0.12,,---,2.36,VWS V14.01,2013-06-18 21:28:00,
2013-06-18 17:29:00,67.6,48.4,29.71,WNW,283,0.0,0.0,50,0.12,,---,2.36,VWS V14.01,2013-06-18 21:29:00,
2013-06-18 17:30:00,67.6,48.4,29.71,WNW,283,0.0,0.0,50,0.12,,---,2.36,VWS V14.01,2013-06-18 21:30:00,
2013-06-18 17:33:00,67.6,48.4,29.71,NW,315,0.0,0.0,50,0.12,,---,2.36,VWS V14.01,2013-06-18 21:33:00,
2013-06-18 17:34:00,67.6,48.9,29.71,NW,315,0.0,0.0,51,0.12,,---,2.36,VWS V14.01,2013-06-18 21:34:00,
2013-06-18 17:35:00,67.6,48.9,29.71,NW,315,0.0,0.0,51,0.12,,---,2.36,VWS V14.01,2013-06-18 21:35:00,
2013-06-18 17:38:00,67.6,49.4,29.71,NW,315,0.0,0.0,52,0.12,,---,2.36,VWS V14.01,2013-06-18 21:38:00,
2013-06-18 17:39:00,67.6,48.9,29.71,NW,315,0.0,0.0,51,0.08,,---,2.36,VWS V14.01,2013-06-18 21:39:00,
2013-06-18 17:40:00,67.6,48.9,29.71,NW,315,0.0,0.0,51,0.08,,---,2.36,VWS V14.01,2013-06-18 21:40:00,
2013-06-18 17:43:00,67.5,48.2,29.71,NW,315,0.0,0.0,50,0.08,,---,2.36,VWS V14.01,2013-06-18 21:43:00,
2013-06-18 17:44:00,67.6,48.9,29.71,NW,315,0.0,0.0,51,0.08,,---,2.36,VWS V14.01,2013-06-18 21:44:00,
2013-06-18 17:45:00,67.6,48.9,29.71,NW,315,0.0,0.0,51,0.08,,---,2.36,VWS V14.01,2013-06-18 21:45:00,
2013-06-18 17:48:00,67.6,49.9,29.71,West,278,0.0,0.0,53,0.04,,---,2.36,VWS V14.01,2013-06-18 21:48:00,
2013-06-18 17:49:00,67.6,49.4,29.71,West,278,0.0,0.0,52,0.04,,---,2.36,VWS V14.01,2013-06-18 21:49:00,
2013-06-18 17:50:00,67.6,49.4,29.71,West,278,0.0,0.0,52,0.04,,---,2.36,VWS V14.01,2013-06-18 21:50:00,
2013-06-18 17:53:00,67.6,49.9,29.68,West,278,0.0,0.0,53,0.04,,---,2.36,VWS V14.01,2013-06-18 21:53:00,
2013-06-18 17:54:00,67.6,50.4,29.68,West,278,0.0,0.0,54,0.04,,---,2.36,VWS V14.01,2013-06-18 21:54:00,
2013-06-18 17:55:00,67.6,50.4,29.68,West,278,0.0,0.0,54,0.04,,---,2.36,VWS V14.01,2013-06-18 21:55:00,
2013-06-18 17:58:00,67.8,53.0,29.68,West,278,0.0,0.0,59,0.04,,---,2.36,VWS V14.01,2013-06-18 21:58:00,
2013-06-18 17:59:00,67.8,53.0,29.68,West,278,0.0,0.0,59,0.04,,---,2.36,VWS V14.01,2013-06-18 21:59:00,
2013-06-18 18:00:00,67.8,53.0,29.68,East,101,0.0,0.0,59,0.04,,---,2.36,VWS V14.01,2013-06-18 22:00:00,
2013-06-18 18:04:00,67.8,52.5,29.68,NNE,23,0.0,0.0,58,0.04,,---,2.36,VWS V14.01,2013-06-18 22:04:00,
2013-06-18 18:05:00,67.8,52.5,29.68,NNE,23,0.0,0.0,58,0.04,,---,2.36,VWS V14.01,2013-06-18 22:05:00,
2013-06-18 18:09:00,67.8,53.4,29.68,NNE,23,0.0,0.0,60,0.08,,---,2.40,VWS V14.01,2013-06-18 22:09:00,
2013-06-18 18:10:00,67.6,53.3,29.68,NNW,345,0.0,0.0,60,0.08,,---,2.40,VWS V14.01,2013-06-18 22:10:00,
2013-06-18 18:14:00,67.6,54.2,29.68,NE,34,0.0,0.0,62,0.08,,---,2.40,VWS V14.01,2013-06-18 22:14:00,
2013-06-18 18:15:00,67.6,54.2,29.68,NE,34,0.0,0.0,62,0.08,,---,2.40,VWS V14.01,2013-06-18 22:15:00,
2013-06-18 18:16:00,67.6,54.2,29.68,NE,34,0.0,0.0,62,0.08,,---,2.40,VWS V14.01,2013-06-18 22:16:00,
2013-06-18 18:19:00,67.6,54.2,29.68,NE,50,0.0,0.0,62,0.04,,---,2.40,VWS V14.01,2013-06-18 22:19:00,
2013-06-18 18:20:00,67.6,54.2,29.68,NE,50,0.0,0.0,62,0.04,,---,2.40,VWS V14.01,2013-06-18 22:20:00,
2013-06-18 18:21:00,67.6,54.2,29.68,NE,50,0.0,0.0,62,0.04,,---,2.40,VWS V14.01,2013-06-18 22:21:00,
2013-06-18 18:24:00,67.8,54.3,29.68,NE,50,0.0,0.0,62,0.04,,---,2.40,VWS V14.01,2013-06-18 22:24:00,
2013-06-18 18:26:00,67.8,54.3,29.68,NE,50,0.0,0.0,62,0.04,,---,2.40,VWS V14.01,2013-06-18 22:26:00,
2013-06-18 18:29:00,67.8,54.3,29.68,NE,50,0.0,0.0,62,0.04,,---,2.40,VWS V14.01,2013-06-18 22:29:00,
2013-06-18 18:31:00,67.8,54.8,29.68,NE,50,0.0,0.0,63,0.04,,---,2.40,VWS V14.01,2013-06-18 22:31:00,
2013-06-18 18:34:00,67.6,53.3,29.68,NE,50,0.0,0.0,60,0.08,,---,2.44,VWS V14.01,2013-06-18 22:34:00,
2013-06-18 18:36:00,67.6,53.3,29.68,NE,50,0.0,0.0,60,0.08,,---,2.44,VWS V14.01,2013-06-18 22:36:00,
2013-06-18 18:39:00,67.6,54.2,29.68,NE,50,0.0,0.0,62,0.08,,---,2.44,VWS V14.01,2013-06-18 22:39:00,
2013-06-18 18:40:00,67.8,54.3,29.68,NE,50,0.0,0.0,62,0.08,,---,2.44,VWS V14.01,2013-06-18 22:40:00,
2013-06-18 18:41:00,67.8,54.3,29.68,NE,50,0.0,0.0,62,0.08,,---,2.44,VWS V14.01,2013-06-18 22:41:00,
2013-06-18 18:42:00,67.8,54.3,29.68,NE,50,0.0,0.0,62,0.08,,---,2.44,VWS V14.01,2013-06-18 22:42:00,
2013-06-18 18:45:00,67.8,54.3,29.68,NE,50,0.0,0.0,62,0.08,,---,2.44,VWS V14.01,2013-06-18 22:45:00,
2013-06-18 18:46:00,67.8,54.3,29.68,NE,50,0.0,0.0,62,0.08,,---,2.44,VWS V14.01,2013-06-18 22:46:00,
2013-06-18 18:47:00,67.8,54.3,29.68,NE,50,0.0,0.0,62,0.08,,---,2.44,VWS V14.01,2013-06-18 22:47:00,
2013-06-18 18:50:00,67.8,54.3,29.68,NE,50,0.0,0.0,62,0.08,,---,2.44,VWS V14.01,2013-06-18 22:50:00,
2013-06-18 18:51:00,67.8,54.3,29.68,NE,50,0.0,0.0,62,0.08,,---,2.44,VWS V14.01,2013-06-18 22:51:00,
2013-06-18 18:52:00,67.8,54.3,29.68,NE,50,0.0,0.0,62,0.08,,---,2.44,VWS V14.01,2013-06-18 22:52:00,
2013-06-18 18:55:00,67.6,53.7,29.68,NE,50,0.0,0.0,61,0.08,,---,2.44,VWS V14.01,2013-06-18 22:55:00,
2013-06-18 18:56:00,67.6,53.7,29.68,NE,50,0.0,0.0,61,0.08,,---,2.44,VWS V14.01,2013-06-18 22:56:00,
2013-06-18 18:57:00,67.6,54.2,29.68,NE,50,0.0,0.0,62,0.08,,---,2.44,VWS V14.01,2013-06-18 22:57:00,
2013-06-18 19:00:00,67.6,54.6,29.68,NE,50,0.0,0.0,63,0.08,,---,2.44,VWS V14.01,2013-06-18 23:00:00,
2013-06-18 19:01:00,67.6,54.6,29.68,NE,50,0.0,0.0,63,0.08,,---,2.44,VWS V14.01,2013-06-18 23:01:00,
2013-06-18 19:02:00,67.6,54.6,29.68,NE,50,0.0,0.0,63,0.08,,---,2.44,VWS V14.01,2013-06-18 23:02:00,
2013-06-18 19:03:00,67.6,54.6,29.68,NE,50,0.0,0.0,63,0.08,,---,2.44,VWS V14.01,2013-06-18 23:03:00,
2013-06-18 19:05:00,67.6,55.0,29.68,NE,50,0.0,0.0,64,0.08,,---,2.44,VWS V14.01,2013-06-18 23:05:00,
2013-06-18 19:06:00,67.6,55.5,29.68,NE,50,0.0,0.0,65,0.08,,---,2.44,VWS V14.01,2013-06-18 23:06:00,
2013-06-18 19:07:00,67.6,55.5,29.68,NE,50,0.0,0.0,65,0.08,,---,2.44,VWS V14.01,2013-06-18 23:07:00,
2013-06-18 19:08:00,67.6,55.5,29.68,NE,50,0.0,0.0,65,0.08,,---,2.44,VWS V14.01,2013-06-18 23:08:00,
2013-06-18 19:10:00,67.6,55.5,29.68,NE,50,0.0,0.0,65,0.04,,---,2.44,VWS V14.01,2013-06-18 23:10:00,
2013-06-18 19:11:00,67.6,55.5,29.68,NE,50,0.0,0.0,65,0.04,,---,2.44,VWS V14.01,2013-06-18 23:11:00,
2013-06-18 19:12:00,67.6,55.5,29.68,NE,50,0.0,0.0,65,0.04,,---,2.44,VWS V14.01,2013-06-18 23:12:00,
2013-06-18 19:13:00,67.6,55.5,29.68,NE,50,0.0,0.0,65,0.04,,---,2.44,VWS V14.01,2013-06-18 23:13:00,
2013-06-18 19:15:00,67.6,55.5,29.68,NE,50,0.0,0.0,65,0.04,,---,2.44,VWS V14.01,2013-06-18 23:15:00,
2013-06-18 19:16:00,67.8,55.6,29.68,NE,50,0.0,0.0,65,0.04,,---,2.44,VWS V14.01,2013-06-18 23:16:00,
2013-06-18 19:17:00,67.8,55.6,29.68,NE,50,0.0,0.0,65,0.04,,---,2.44,VWS V14.01,2013-06-18 23:17:00,
2013-06-18 19:18:00,67.8,55.6,29.68,NE,50,0.0,0.0,65,0.04,,---,2.44,VWS V14.01,2013-06-18 23:18:00,
2013-06-18 19:20:00,67.8,56.1,29.68,NE,50,0.0,0.0,66,0.04,,---,2.44,VWS V14.01,2013-06-18 23:20:00,
2013-06-18 19:21:00,67.8,56.1,29.68,NE,50,0.0,0.0,66,0.04,,---,2.44,VWS V14.01,2013-06-18 23:21:00,
2013-06-18 19:22:00,67.8,56.1,29.68,NE,50,0.0,0.0,66,0.04,,---,2.44,VWS V14.01,2013-06-18 23:22:00,
2013-06-18 19:23:00,67.8,56.1,29.68,NE,50,0.0,0.0,66,0.04,,---,2.44,VWS V14.01,2013-06-18 23:23:00,
2013-06-18 19:24:00,67.6,55.9,29.68,NE,51,0.0,0.0,66,0.04,,---,2.44,VWS V14.01,2013-06-18 23:24:00,
2013-06-18 19:25:00,67.6,55.9,29.68,NE,50,0.0,0.0,66,0.04,,---,2.44,VWS V14.01,2013-06-18 23:25:00,
2013-06-18 19:26:00,67.6,55.9,29.68,NE,50,0.0,0.0,66,0.04,,---,2.44,VWS V14.01,2013-06-18 23:26:00,
2013-06-18 19:27:00,67.6,55.9,29.68,NE,51,0.0,0.0,66,0.04,,---,2.44,VWS V14.01,2013-06-18 23:27:00,
2013-06-18 19:28:00,67.6,55.9,29.68,NE,50,0.0,0.0,66,0.04,,---,2.44,VWS V14.01,2013-06-18 23:28:00,
2013-06-18 19:30:00,67.6,55.9,29.68,NE,50,0.0,0.0,66,0.04,,---,2.44,VWS V14.01,2013-06-18 23:30:00,
2013-06-18 19:31:00,67.6,55.9,29.68,NNE,27,0.0,0.0,66,0.04,,---,2.44,VWS V14.01,2013-06-18 23:31:00,
2013-06-18 19:32:00,67.6,55.9,29.68,NNE,27,0.0,0.0,66,0.04,,---,2.44,VWS V14.01,2013-06-18 23:32:00,
2013-06-18 19:33:00,67.6,55.9,29.68,NNE,27,0.0,0.0,66,0.04,,---,2.44,VWS V14.01,2013-06-18 23:33:00,
2013-06-18 19:35:00,67.6,55.9,29.68,NNE,27,0.0,0.0,66,0.00,,---,2.44,VWS V14.01,2013-06-18 23:35:00,
2013-06-18 19:36:00,67.8,56.5,29.68,NNE,27,0.0,0.0,67,0.00,,---,2.44,VWS V14.01,2013-06-18 23:36:00,
2013-06-18 19:37:00,67.8,56.5,29.68,NNE,27,0.0,0.0,67,0.00,,---,2.44,VWS V14.01,2013-06-18 23:37:00,
2013-06-18 19:38:00,67.8,56.5,29.68,NNE,27,0.0,0.0,67,0.00,,---,2.44,VWS V14.01,2013-06-18 23:38:00,
2013-06-18 19:40:00,67.8,56.5,29.68,NNE,20,0.0,0.0,67,0.00,,---,2.44,VWS V14.01,2013-06-18 23:40:00,
2013-06-18 19:41:00,67.6,56.3,29.68,NNE,20,0.0,0.0,67,0.00,,---,2.44,VWS V14.01,2013-06-18 23:41:00,
2013-06-18 19:42:00,67.6,56.3,29.68,NNE,20,0.0,0.0,67,0.00,,---,2.44,VWS V14.01,2013-06-18 23:42:00,
2013-06-18 19:43:00,67.6,55.9,29.68,NNE,20,0.0,0.0,66,0.00,,---,2.44,VWS V14.01,2013-06-18 23:43:00,
2013-06-18 19:45:00,67.6,56.3,29.68,NNE,20,0.0,0.0,67,0.00,,---,2.44,VWS V14.01,2013-06-18 23:45:00,
2013-06-18 19:46:00,67.6,56.3,29.68,NNE,20,0.0,0.0,67,0.00,,---,2.44,VWS V14.01,2013-06-18 23:46:00,
2013-06-18 19:47:00,67.6,56.3,29.68,NNE,20,0.0,0.0,67,0.00,,---,2.44,VWS V14.01,2013-06-18 23:47:00,
2013-06-18 19:48:00,67.6,56.3,29.68,NNE,20,0.0,0.0,67,0.00,,---,2.44,VWS V14.01,2013-06-18 23:48:00,
2013-06-18 19:50:00,67.6,56.3,29.68,North,353,0.0,0.0,67,0.00,,---,2.44,VWS V14.01,2013-06-18 23:50:00,
2013-06-18 19:51:00,67.6,56.3,29.68,North,353,0.0,0.0,67,0.00,,---,2.44,VWS V14.01,2013-06-18 23:51:00,
2013-06-18 19:52:00,67.6,56.3,29.68,North,353,0.0,0.0,67,0.00,,---,2.44,VWS V14.01,2013-06-18 23:52:00,
2013-06-18 19:54:00,67.6,56.7,29.68,NW,312,3.1,4.0,68,0.00,,---,2.44,VWS V14.01,2013-06-18 23:54:00,
2013-06-18 19:55:00,67.6,56.7,29.68,WNW,300,0.0,3.1,68,0.00,,---,2.44,VWS V14.01,2013-06-18 23:55:00,
2013-06-18 19:57:00,67.6,57.1,29.68,NNW,327,2.7,2.7,69,0.00,,---,2.44,VWS V14.01,2013-06-18 23:57:00,
2013-06-18 20:00:00,67.6,57.1,29.68,NW,316,0.0,2.7,69,0.00,,---,2.44,VWS V14.01,2013-06-19 00:00:00,
2013-06-18 20:02:00,67.5,57.3,29.68,NW,310,0.0,3.1,70,0.00,,---,2.44,VWS V14.01,2013-06-19 00:02:00,
2013-06-18 20:03:00,67.5,57.0,29.68,NW,310,0.0,0.0,69,0.00,,---,2.44,VWS V14.01,2013-06-19 00:03:00,
2013-06-18 20:05:00,67.5,57.0,29.68,NW,310,0.0,0.0,69,0.00,,---,2.44,VWS V14.01,2013-06-19 00:05:00,
2013-06-18 20:06:00,67.5,57.3,29.65,NW,310,0.0,0.0,70,0.00,,---,2.44,VWS V14.01,2013-06-19 00:06:00,
2013-06-18 20:07:00,67.5,57.3,29.65,North,353,0.0,0.0,70,0.00,,---,2.44,VWS V14.01,2013-06-19 00:07:00,
2013-06-18 20:08:00,67.5,57.0,29.65,West,270,0.0,3.1,69,0.00,,---,2.44,VWS V14.01,2013-06-19 00:08:00,
2013-06-18 20:10:00,67.5,56.5,29.65,West,270,0.0,0.0,68,0.00,,---,2.44,VWS V14.01,2013-06-19 00:10:00,
2013-06-18 20:11:00,67.5,56.1,29.65,NW,326,0.0,2.7,67,0.00,,---,2.44,VWS V14.01,2013-06-19 00:11:00,
2013-06-18 20:12:00,67.5,56.1,29.65,South,173,0.0,0.0,67,0.00,,---,2.44,VWS V14.01,2013-06-19 00:12:00,
2013-06-18 20:13:00,67.5,55.7,29.65,NW,311,0.0,0.0,66,0.00,,---,2.44,VWS V14.01,2013-06-19 00:13:00,
2013-06-18 20:15:00,67.3,53.4,29.65,West,273,0.0,0.0,61,0.00,,---,2.44,VWS V14.01,2013-06-19 00:15:00,
2013-06-18 20:16:00,67.3,52.9,29.65,NNW,337,0.0,0.0,60,0.00,,---,2.44,VWS V14.01,2013-06-19 00:16:00,
2013-06-18 20:17:00,67.1,52.3,29.65,NNW,338,3.1,3.1,59,0.00,,---,2.44,VWS V14.01,2013-06-19 00:17:00,
2013-06-18 20:18:00,67.1,51.8,29.65,NNW,345,0.0,3.1,58,0.00,,---,2.44,VWS V14.01,2013-06-19 00:18:00,
2013-06-18 20:20:00,67.1,49.9,29.65,WSW,238,0.0,0.0,54,0.00,,---,2.44,VWS V14.01,2013-06-19 00:20:00,
2013-06-18 20:21:00,66.9,49.2,29.68,WSW,246,0.0,0.0,53,0.00,,---,2.44,VWS V14.01,2013-06-19 00:21:00,
2013-06-18 20:22:00,66.9,48.7,29.68,NW,318,0.0,0.0,52,0.00,,---,2.44,VWS V14.01,2013-06-19 00:22:00,
2013-06-18 20:23:00,66.9,48.2,29.68,NNE,20,4.0,4.0,51,0.00,,---,2.44,VWS V14.01,2013-06-19 00:23:00,
2013-06-18 20:25:00,66.9,47.7,29.68,NNW,335,0.0,0.0,50,0.00,,---,2.44,VWS V14.01,2013-06-19 00:25:00,
2013-06-18 20:26:00,66.9,48.2,29.68,West,266,0.0,0.0,51,0.00,,---,2.44,VWS V14.01,2013-06-19 00:26:00,
2013-06-18 20:28:00,66.9,48.2,29.68,West,266,0.0,0.0,51,0.00,,---,2.44,VWS V14.01,2013-06-19 00:28:00,
2013-06-18 20:30:00,66.9,48.2,29.68,SW,218,0.0,0.0,51,0.00,,---,2.44,VWS V14.01,2013-06-19 00:30:00,
2013-06-18 20:31:00,66.9,48.2,29.68,SW,218,0.0,0.0,51,0.00,,---,2.44,VWS V14.01,2013-06-19 00:31:00,
2013-06-18 20:33:00,66.9,47.2,29.68,SW,218,0.0,0.0,49,0.00,,---,2.44,VWS V14.01,2013-06-19 00:33:00,
2013-06-18 20:34:00,66.7,46.5,29.68,WSW,251,0.0,0.0,48,0.00,,---,2.44,VWS V14.01,2013-06-19 00:34:00,
2013-06-18 20:35:00,66.7,46.5,29.68,WSW,251,0.0,0.0,48,0.00,,---,2.44,VWS V14.01,2013-06-19 00:35:00,
2013-06-18 20:37:00,66.9,47.2,29.68,WSW,251,0.0,0.0,49,0.00,,---,2.44,VWS V14.01,2013-06-19 00:37:00,
2013-06-18 20:38:00,66.9,47.2,29.68,NNW,339,2.7,2.7,49,0.00,,---,2.44,VWS V14.01,2013-06-19 00:38:00,
2013-06-18 20:39:00,66.9,47.2,29.68,NNW,332,0.0,0.0,49,0.00,,---,2.44,VWS V14.01,2013-06-19 00:39:00,
2013-06-18 20:40:00,66.9,47.2,29.68,NNW,332,0.0,0.0,49,0.00,,---,2.44,VWS V14.01,2013-06-19 00:40:00,
2013-06-18 20:42:00,66.7,47.5,29.68,NNW,332,0.0,0.0,50,0.00,,---,2.44,VWS V14.01,2013-06-19 00:42:00,
2013-06-18 20:43:00,66.7,47.5,29.68,NE,36,3.1,3.1,50,0.00,,---,2.44,VWS V14.01,2013-06-19 00:43:00,
2013-06-18 20:44:00,66.7,47.5,29.68,North,353,4.0,4.0,50,0.00,,---,2.44,VWS V14.01,2013-06-19 00:44:00,
2013-06-18 20:45:00,66.7,47.0,29.68,North,353,0.0,0.0,49,0.08,,---,2.52,VWS V14.01,2013-06-19 00:45:00,
2013-06-18 20:47:00,66.7,47.5,29.68,SW,226,2.7,2.7,50,0.08,,---,2.52,VWS V14.01,2013-06-19 00:47:00,
2013-06-18 20:48:00,66.7,47.5,29.68,NNE,31,0.0,0.0,50,0.08,,---,2.52,VWS V14.01,2013-06-19 00:48:00,
2013-06-18 20:49:00,66.7,47.5,29.68,West,277,0.0,0.0,50,0.08,,---,2.52,VWS V14.01,2013-06-19 00:49:00,
2013-06-18 20:51:00,66.7,47.5,29.68,West,277,0.0,0.0,50,0.08,,---,2.52,VWS V14.01,2013-06-19 00:51:00,
2013-06-18 20:52:00,66.6,47.4,29.68,West,279,0.0,0.0,50,0.08,,---,2.52,VWS V14.01,2013-06-19 00:52:00,
2013-06-18 20:53:00,66.6,47.4,29.68,West,279,0.0,0.0,50,0.08,,---,2.52,VWS V14.01,2013-06-19 00:53:00,
2013-06-18 20:54:00,66.6,47.4,29.68,West,279,0.0,0.0,50,0.08,,---,2.52,VWS V14.01,2013-06-19 00:54:00,
2013-06-18 20:56:00,66.7,47.5,29.68,West,279,0.0,0.0,50,0.08,,---,2.52,VWS V14.01,2013-06-19 00:56:00,
2013-06-18 20:57:00,66.7,47.5,29.68,South,186,0.0,2.7,50,0.08,,---,2.52,VWS V14.01,2013-06-19 00:57:00,
2013-06-18 20:58:00,66.7,47.5,29.68,SSW,200,0.0,0.0,50,0.08,,---,2.52,VWS V14.01,2013-06-19 00:58:00,
2013-06-18 20:59:00,66.7,48.1,29.68,SSW,200,0.0,0.0,51,0.08,,---,2.52,VWS V14.01,2013-06-19 00:59:00,
2013-06-18 21:01:00,66.7,48.1,29.68,SSW,200,0.0,0.0,51,0.08,,---,2.52,VWS V14.01,2013-06-19 01:01:00,
2013-06-18 21:02:00,66.7,48.1,29.68,SSW,200,0.0,0.0,51,0.08,,---,2.52,VWS V14.01,2013-06-19 01:02:00,
2013-06-18 21:03:00,66.6,47.9,29.68,SSW,200,0.0,0.0,51,0.08,,---,2.52,VWS V14.01,2013-06-19 01:03:00,
2013-06-18 21:04:00,66.6,47.9,29.68,SSW,201,0.0,0.0,51,0.08,,---,2.52,VWS V14.01,2013-06-19 01:04:00,
2013-06-18 21:06:00,66.6,47.9,29.65,SSW,201,0.0,0.0,51,0.08,,---,2.52,VWS V14.01,2013-06-19 01:06:00,
2013-06-18 21:07:00,66.6,47.9,29.65,SSW,201,0.0,0.0,51,0.08,,---,2.52,VWS V14.01,2013-06-19 01:07:00,
2013-06-18 21:08:00,66.6,47.9,29.65,SSW,201,0.0,0.0,51,0.08,,---,2.52,VWS V14.01,2013-06-19 01:08:00,
2013-06-18 21:09:00,66.6,47.9,29.65,SSW,201,0.0,0.0,51,0.08,,---,2.52,VWS V14.01,2013-06-19 01:09:00,
2013-06-18 21:10:00,66.6,47.9,29.65,SSW,201,0.0,0.0,51,0.08,,---,2.52,VWS V14.01,2013-06-19 01:10:00,
2013-06-18 21:11:00,66.4,47.7,29.65,North,353,0.0,0.0,51,0.08,,---,2.52,VWS V14.01,2013-06-19 01:11:00,
2013-06-18 21:12:00,66.4,46.7,29.65,WNW,300,3.6,3.6,49,0.08,,---,2.52,VWS V14.01,2013-06-19 01:12:00,
2013-06-18 21:13:00,66.2,47.0,29.65,WSW,246,0.0,0.0,50,0.08,,---,2.52,VWS V14.01,2013-06-19 01:13:00,
2013-06-18 21:15:00,66.2,47.6,29.65,WSW,246,0.0,0.0,51,0.08,,---,2.52,VWS V14.01,2013-06-19 01:15:00,
2013-06-18 21:16:00,66.2,48.6,29.65,WSW,246,0.0,0.0,53,0.08,,---,2.52,VWS V14.01,2013-06-19 01:16:00,
2013-06-18 21:17:00,66.2,48.6,29.65,WSW,246,0.0,0.0,53,0.08,,---,2.52,VWS V14.01,2013-06-19 01:17:00,
2013-06-18 21:19:00,66.2,48.6,29.65,WSW,246,0.0,0.0,53,0.08,,---,2.52,VWS V14.01,2013-06-19 01:19:00,
2013-06-18 21:20:00,66.2,49.1,29.65,WSW,246,0.0,0.0,54,0.08,,---,2.52,VWS V14.01,2013-06-19 01:20:00,
2013-06-18 21:22:00,66.2,49.1,29.65,WSW,246,0.0,0.0,54,0.08,,---,2.52,VWS V14.01,2013-06-19 01:22:00,
2013-06-18 21:24:00,66.2,48.6,29.65,WSW,246,0.0,0.0,53,0.08,,---,2.52,VWS V14.01,2013-06-19 01:24:00,
2013-06-18 21:25:00,66.2,48.6,29.65,WSW,246,0.0,0.0,53,0.08,,---,2.52,VWS V14.01,2013-06-19 01:25:00,
2013-06-18 21:27:00,66.0,48.9,29.65,WSW,246,0.0,0.0,54,0.08,,---,2.52,VWS V14.01,2013-06-19 01:27:00,
2013-06-18 21:29:00,66.0,48.9,29.65,WSW,246,0.0,0.0,54,0.08,,---,2.52,VWS V14.01,2013-06-19 01:29:00,
2013-06-18 21:30:00,66.0,48.9,29.65,WSW,246,0.0,0.0,54,0.08,,---,2.52,VWS V14.01,2013-06-19 01:30:00,
2013-06-18 21:32:00,66.0,49.9,29.65,WNW,299,0.0,4.0,56,0.08,,---,2.52,VWS V14.01,2013-06-19 01:32:00,
2013-06-18 21:34:00,66.0,50.4,29.65,WNW,299,0.0,0.0,57,0.08,,---,2.52,VWS V14.01,2013-06-19 01:34:00,
2013-06-18 21:35:00,66.0,50.4,29.65,WNW,299,0.0,0.0,57,0.08,,---,2.52,VWS V14.01,2013-06-19 01:35:00,
2013-06-18 21:37:00,66.0,50.8,29.68,WNW,299,0.0,0.0,58,0.08,,---,2.52,VWS V14.01,2013-06-19 01:37:00,
2013-06-18 21:38:00,66.0,50.8,29.68,WNW,299,0.0,0.0,58,0.08,,---,2.52,VWS V14.01,2013-06-19 01:38:00,
2013-06-18 21:39:00,66.0,50.8,29.68,WNW,301,0.0,0.0,58,0.08,,---,2.52,VWS V14.01,2013-06-19 01:39:00,
2013-06-18 21:40:00,65.8,50.7,29.68,WNW,301,0.0,0.0,58,0.08,,---,2.52,VWS V14.01,2013-06-19 01:40:00,
2013-06-18 21:41:00,65.8,50.7,29.68,WNW,301,0.0,0.0,58,0.08,,---,2.52,VWS V14.01,2013-06-19 01:41:00,
2013-06-18 21:43:00,65.8,50.7,29.68,WNW,301,0.0,0.0,58,0.08,,---,2.52,VWS V14.01,2013-06-19 01:43:00,
2013-06-18 21:44:00,65.8,50.7,29.68,WNW,301,0.0,0.0,58,0.08,,---,2.52,VWS V14.01,2013-06-19 01:44:00,
2013-06-18 21:45:00,65.8,50.7,29.68,WNW,301,0.0,0.0,58,0.08,,---,2.52,VWS V14.01,2013-06-19 01:45:00,
2013-06-18 21:46:00,65.8,50.7,29.68,WNW,301,0.0,0.0,58,0.08,,---,2.52,VWS V14.01,2013-06-19 01:46:00,
2013-06-18 21:48:00,65.8,50.7,29.68,WNW,301,0.0,0.0,58,0.00,,---,2.52,VWS V14.01,2013-06-19 01:48:00,
2013-06-18 21:49:00,65.8,50.7,29.68,WNW,301,0.0,0.0,58,0.00,,---,2.52,VWS V14.01,2013-06-19 01:49:00,
2013-06-18 21:50:00,65.8,50.7,29.68,WNW,301,0.0,0.0,58,0.00,,---,2.52,VWS V14.01,2013-06-19 01:50:00,
2013-06-18 21:51:00,65.8,51.1,29.68,WNW,301,0.0,0.0,59,0.00,,---,2.52,VWS V14.01,2013-06-19 01:51:00,
2013-06-18 21:53:00,65.8,51.1,29.68,WNW,301,0.0,0.0,59,0.00,,---,2.52,VWS V14.01,2013-06-19 01:53:00,
2013-06-18 21:54:00,65.7,51.0,29.68,WNW,301,0.0,0.0,59,0.00,,---,2.52,VWS V14.01,2013-06-19 01:54:00,
2013-06-18 21:55:00,65.7,51.4,29.68,WNW,301,0.0,0.0,60,0.00,,---,2.52,VWS V14.01,2013-06-19 01:55:00,
2013-06-18 21:56:00,65.7,51.4,29.68,WNW,301,0.0,0.0,60,0.00,,---,2.52,VWS V14.01,2013-06-19 01:56:00,
2013-06-18 21:58:00,65.7,51.4,29.68,WNW,301,0.0,0.0,60,0.00,,---,2.52,VWS V14.01,2013-06-19 01:58:00,
2013-06-18 21:59:00,65.5,52.6,29.68,WNW,301,0.0,0.0,63,0.00,,---,2.52,VWS V14.01,2013-06-19 01:59:00,
2013-06-18 22:00:00,65.5,53.0,29.68,WNW,301,0.0,0.0,64,0.00,,---,2.52,VWS V14.01,2013-06-19 02:00:00,
2013-06-18 22:02:00,65.5,53.4,29.68,WNW,301,0.0,0.0,65,0.00,,---,2.52,VWS V14.01,2013-06-19 02:02:00,
2013-06-18 22:03:00,65.5,53.4,29.68,WNW,301,0.0,0.0,65,0.00,,---,2.52,VWS V14.01,2013-06-19 02:03:00,
2013-06-18 22:04:00,65.3,53.2,29.68,WNW,301,0.0,0.0,65,0.00,,---,2.52,VWS V14.01,2013-06-19 02:04:00,
2013-06-18 22:05:00,65.3,53.7,29.68,WNW,301,0.0,0.0,66,0.00,,---,2.52,VWS V14.01,2013-06-19 02:05:00,
2013-06-18 22:07:00,65.3,54.1,29.68,WNW,301,0.0,0.0,67,0.00,,---,2.52,VWS V14.01,2013-06-19 02:07:00,
2013-06-18 22:08:00,65.1,54.3,29.68,WNW,301,0.0,0.0,68,0.00,,---,2.52,VWS V14.01,2013-06-19 02:08:00,
2013-06-18 22:09:00,65.1,54.7,29.68,WNW,301,0.0,0.0,69,0.00,,---,2.52,VWS V14.01,2013-06-19 02:09:00,
2013-06-18 22:11:00,65.1,54.7,29.68,WNW,301,0.0,0.0,69,0.00,,---,2.52,VWS V14.01,2013-06-19 02:11:00,
2013-06-18 22:12:00,65.1,54.7,29.68,WNW,301,0.0,0.0,69,0.00,,---,2.52,VWS V14.01,2013-06-19 02:12:00,
2013-06-18 22:13:00,65.1,55.1,29.68,WNW,301,0.0,0.0,70,0.00,,---,2.52,VWS V14.01,2013-06-19 02:13:00,
2013-06-18 22:14:00,65.1,55.1,29.68,WNW,301,0.0,0.0,70,0.00,,---,2.52,VWS V14.01,2013-06-19 02:14:00,
2013-06-18 22:16:00,65.1,55.5,29.68,WNW,301,0.0,0.0,71,0.00,,---,2.52,VWS V14.01,2013-06-19 02:16:00,
2013-06-18 22:17:00,65.1,55.5,29.68,WNW,301,0.0,0.0,71,0.00,,---,2.52,VWS V14.01,2013-06-19 02:17:00,
2013-06-18 22:18:00,65.1,55.5,29.68,WNW,301,0.0,0.0,71,0.00,,---,2.52,VWS V14.01,2013-06-19 02:18:00,
2013-06-18 22:19:00,65.1,55.5,29.68,WNW,301,0.0,0.0,71,0.00,,---,2.52,VWS V14.01,2013-06-19 02:19:00,
2013-06-18 22:21:00,65.1,55.5,29.71,WNW,301,0.0,0.0,71,0.00,,---,2.52,VWS V14.01,2013-06-19 02:21:00,
2013-06-18 22:22:00,65.1,55.5,29.71,WNW,301,0.0,0.0,71,0.00,,---,2.52,VWS V14.01,2013-06-19 02:22:00,
2013-06-18 22:23:00,65.1,55.5,29.71,WNW,301,0.0,0.0,71,0.00,,---,2.52,VWS V14.01,2013-06-19 02:23:00,
2013-06-18 22:26:00,65.1,55.5,29.71,WNW,301,0.0,0.0,71,0.00,,---,2.52,VWS V14.01,2013-06-19 02:26:00,
2013-06-18 22:27:00,65.1,55.5,29.71,WNW,301,0.0,0.0,71,0.00,,---,2.52,VWS V14.01,2013-06-19 02:27:00,
2013-06-18 22:28:00,65.1,55.5,29.71,WNW,301,0.0,0.0,71,0.00,,---,2.52,VWS V14.01,2013-06-19 02:28:00,
2013-06-18 22:29:00,65.1,55.5,29.71,WNW,301,0.0,0.0,71,0.00,,---,2.52,VWS V14.01,2013-06-19 02:29:00,
2013-06-18 22:31:00,65.1,55.5,29.71,WNW,301,0.0,0.0,71,0.00,,---,2.52,VWS V14.01,2013-06-19 02:31:00,
2013-06-18 22:32:00,65.1,55.5,29.71,WNW,301,0.0,0.0,71,0.00,,---,2.52,VWS V14.01,2013-06-19 02:32:00,
2013-06-18 22:33:00,65.1,55.5,29.71,WNW,301,0.0,0.0,71,0.00,,---,2.52,VWS V14.01,2013-06-19 02:33:00,
2013-06-18 22:34:00,65.1,55.5,29.71,WNW,301,0.0,0.0,71,0.00,,---,2.52,VWS V14.01,2013-06-19 02:34:00,
2013-06-18 22:36:00,65.1,55.5,29.71,WNW,301,0.0,0.0,71,0.00,,---,2.52,VWS V14.01,2013-06-19 02:36:00,
2013-06-18 22:37:00,65.1,55.5,29.71,WNW,301,0.0,0.0,71,0.00,,---,2.52,VWS V14.01,2013-06-19 02:37:00,
2013-06-18 22:38:00,64.9,55.3,29.71,WNW,301,0.0,0.0,71,0.00,,---,2.52,VWS V14.01,2013-06-19 02:38:00,
2013-06-18 22:39:00,65.1,55.5,29.71,WNW,301,0.0,0.0,71,0.00,,---,2.52,VWS V14.01,2013-06-19 02:39:00,
2013-06-18 22:42:00,64.9,55.3,29.71,WNW,301,0.0,0.0,71,0.00,,---,2.52,VWS V14.01,2013-06-19 02:42:00,
2013-06-18 22:43:00,65.1,55.9,29.71,WNW,301,0.0,0.0,72,0.00,,---,2.52,VWS V14.01,2013-06-19 02:43:00,
2013-06-18 22:44:00,64.9,55.7,29.71,WNW,301,0.0,0.0,72,0.00,,---,2.52,VWS V14.01,2013-06-19 02:44:00,
2013-06-18 22:47:00,64.8,55.2,29.71,WNW,301,0.0,0.0,71,0.00,,---,2.52,VWS V14.01,2013-06-19 02:47:00,
2013-06-18 22:48:00,64.8,55.5,29.71,WNW,301,0.0,0.0,72,0.00,,---,2.52,VWS V14.01,2013-06-19 02:48:00,
2013-06-18 22:49:00,64.8,55.9,29.71,WNW,301,0.0,0.0,73,0.00,,---,2.52,VWS V14.01,2013-06-19 02:49:00,
2013-06-18 22:52:00,64.8,55.9,29.71,WNW,301,0.0,0.0,73,0.00,,---,2.52,VWS V14.01,2013-06-19 02:52:00,
2013-06-18 22:53:00,64.8,55.9,29.71,WNW,301,0.0,0.0,73,0.00,,---,2.52,VWS V14.01,2013-06-19 02:53:00,
2013-06-18 22:55:00,64.8,55.9,29.71,WNW,301,0.0,0.0,73,0.00,,---,2.52,VWS V14.01,2013-06-19 02:55:00,
2013-06-18 22:57:00,64.8,56.3,29.71,WNW,301,0.0,0.0,74,0.00,,---,2.52,VWS V14.01,2013-06-19 02:57:00,
2013-06-18 22:58:00,64.8,55.9,29.71,WNW,301,0.0,0.0,73,0.00,,---,2.52,VWS V14.01,2013-06-19 02:58:00,
2013-06-18 22:59:00,64.8,55.9,29.71,WNW,301,0.0,0.0,73,0.00,,---,2.52,VWS V14.01,2013-06-19 02:59:00,
2013-06-18 23:00:00,64.8,55.9,29.71,WNW,301,0.0,0.0,73,0.00,,---,2.52,VWS V14.01,2013-06-19 03:00:00,
2013-06-18 23:02:00,64.8,55.9,29.71,WNW,301,0.0,0.0,73,0.00,,---,2.52,VWS V14.01,2013-06-19 03:02:00,
2013-06-18 23:03:00,64.8,55.9,29.71,WNW,301,0.0,0.0,73,0.00,,---,2.52,VWS V14.01,2013-06-19 03:03:00,
2013-06-18 23:04:00,64.8,55.9,29.71,WNW,301,0.0,0.0,73,0.00,,---,2.52,VWS V14.01,2013-06-19 03:04:00,
2013-06-18 23:05:00,64.8,55.9,29.71,WNW,301,0.0,0.0,73,0.00,,---,2.52,VWS V14.01,2013-06-19 03:05:00,
2013-06-18 23:07:00,64.9,56.1,29.71,WNW,301,0.0,0.0,73,0.00,,---,2.52,VWS V14.01,2013-06-19 03:07:00,
2013-06-18 23:08:00,64.9,56.1,29.71,WNW,301,0.0,0.0,73,0.00,,---,2.52,VWS V14.01,2013-06-19 03:08:00,
2013-06-18 23:09:00,64.9,56.5,29.71,WNW,301,0.0,0.0,74,0.00,,---,2.52,VWS V14.01,2013-06-19 03:09:00,
2013-06-18 23:10:00,64.9,56.5,29.71,WNW,301,0.0,0.0,74,0.00,,---,2.52,VWS V14.01,2013-06-19 03:10:00,
2013-06-18 23:12:00,64.9,56.8,29.71,WNW,301,0.0,0.0,75,0.00,,---,2.52,VWS V14.01,2013-06-19 03:12:00,
2013-06-18 23:13:00,64.9,56.8,29.71,WNW,301,0.0,0.0,75,0.00,,---,2.52,VWS V14.01,2013-06-19 03:13:00,
2013-06-18 23:14:00,64.9,57.2,29.71,WNW,301,0.0,0.0,76,0.00,,---,2.52,VWS V14.01,2013-06-19 03:14:00,
2013-06-18 23:15:00,64.9,57.2,29.71,WNW,301,0.0,0.0,76,0.00,,---,2.52,VWS V14.01,2013-06-19 03:15:00,
2013-06-18 23:17:00,64.9,57.2,29.71,WNW,301,0.0,0.0,76,0.00,,---,2.52,VWS V14.01,2013-06-19 03:17:00,
2013-06-18 23:18:00,64.9,57.2,29.71,WNW,301,0.0,0.0,76,0.00,,---,2.52,VWS V14.01,2013-06-19 03:18:00,
2013-06-18 23:20:00,64.9,57.2,29.71,WNW,301,0.0,0.0,76,0.00,,---,2.52,VWS V14.01,2013-06-19 03:20:00,
2013-06-18 23:22:00,64.9,57.2,29.71,NNE,15,0.0,0.0,76,0.00,,---,2.52,VWS V14.01,2013-06-19 03:22:00,
2013-06-18 23:23:00,64.9,57.2,29.71,NNE,15,0.0,0.0,76,0.00,,---,2.52,VWS V14.01,2013-06-19 03:23:00,
2013-06-18 23:25:00,64.9,57.2,29.71,NNE,15,0.0,0.0,76,0.00,,---,2.52,VWS V14.01,2013-06-19 03:25:00,
2013-06-18 23:27:00,64.9,57.6,29.71,NNE,15,0.0,0.0,77,0.00,,---,2.52,VWS V14.01,2013-06-19 03:27:00,
2013-06-18 23:28:00,64.9,57.6,29.71,NNE,15,0.0,0.0,77,0.00,,---,2.52,VWS V14.01,2013-06-19 03:28:00,
2013-06-18 23:29:00,64.9,57.6,29.71,NNE,15,0.0,0.0,77,0.00,,---,2.52,VWS V14.01,2013-06-19 03:29:00,
2013-06-18 23:30:00,64.9,57.6,29.71,NNE,15,0.0,0.0,77,0.00,,---,2.52,VWS V14.01,2013-06-19 03:30:00,
2013-06-18 23:33:00,64.9,57.6,29.71,NNW,328,0.0,0.0,77,0.00,,---,2.52,VWS V14.01,2013-06-19 03:33:00,
2013-06-18 23:34:00,64.9,57.6,29.71,NNW,328,0.0,0.0,77,0.00,,---,2.52,VWS V14.01,2013-06-19 03:34:00,
2013-06-18 23:35:00,65.1,57.7,29.71,NNW,328,0.0,0.0,77,0.00,,---,2.52,VWS V14.01,2013-06-19 03:35:00,
2013-06-18 23:36:00,65.1,57.7,29.71,NNW,328,0.0,0.0,77,0.00,,---,2.52,VWS V14.01,2013-06-19 03:36:00,
2013-06-18 23:38:00,65.1,57.7,29.71,NNW,328,0.0,0.0,77,0.00,,---,2.52,VWS V14.01,2013-06-19 03:38:00,
2013-06-18 23:39:00,65.1,58.1,29.71,NNW,328,0.0,0.0,78,0.00,,---,2.52,VWS V14.01,2013-06-19 03:39:00,
2013-06-18 23:40:00,65.1,58.1,29.71,NNW,328,0.0,0.0,78,0.00,,---,2.52,VWS V14.01,2013-06-19 03:40:00,
2013-06-18 23:41:00,65.1,58.1,29.71,North,0,4.0,4.0,78,0.00,,---,2.52,VWS V14.01,2013-06-19 03:41:00,
2013-06-18 23:43:00,65.1,58.1,29.71,NNE,17,0.0,0.0,78,0.00,,---,2.52,VWS V14.01,2013-06-19 03:43:00,
2013-06-18 23:44:00,65.1,58.1,29.71,NNE,17,0.0,0.0,78,0.00,,---,2.52,VWS V14.01,2013-06-19 03:44:00,
2013-06-18 23:46:00,65.1,58.1,29.71,NNE,17,0.0,0.0,78,0.00,,---,2.52,VWS V14.01,2013-06-19 03:46:00,
2013-06-18 23:48:00,65.1,58.5,29.71,NNE,17,0.0,0.0,79,0.00,,---,2.52,VWS V14.01,2013-06-19 03:48:00,
2013-06-18 23:49:00,65.1,58.5,29.71,NW,310,0.0,0.0,79,0.00,,---,2.52,VWS V14.01,2013-06-19 03:49:00,
2013-06-18 23:51:00,65.3,58.6,29.71,NW,310,0.0,0.0,79,0.00,,---,2.52,VWS V14.01,2013-06-19 03:51:00,
2013-06-18 23:53:00,65.3,58.6,29.71,NW,310,0.0,0.0,79,0.00,,---,2.52,VWS V14.01,2013-06-19 03:53:00,
2013-06-18 23:54:00,65.3,58.6,29.71,NW,310,0.0,0.0,79,0.00,,---,2.52,VWS V14.01,2013-06-19 03:54:00,
2013-06-18 23:56:00,65.5,59.2,29.71,NW,310,0.0,0.0,80,0.00,,---,2.52,VWS V14.01,2013-06-19 03:56:00,
2013-06-18 23:58:00,65.5,59.2,29.71,West,280,0.0,0.0,80,0.00,,---,2.52,VWS V14.01,2013-06-19 03:58:00,
2013-06-18 23:59:00,65.5,59.2,29.71,NW,305,0.0,0.0,80,0.00,,---,2.52,VWS V14.01,2013-06-19 03:59:00,